     2              OBSERVATION DATA    GPS                 RINEX VERSION / TYPE
teqc 2000Feb29 Duncan Agnew 20000704 01:25:59UTC            PGM / RUN BY / DATE
                                                            COMMENT
L2: 1 -> 1; 5 -> 5; 60 -> 9                                 COMMENT
L2: 1 -> 1; 5 -> 5; 60 -> 9                                 COMMENT
L2: 1 -> 1; 5 -> 5; 60 -> 9                                 COMMENT
L2: 1 -> 1; 5 -> 5; 60 -> 9                                 COMMENT
L2: 1 -> 1; 5 -> 5; 60 -> 9                                 COMMENT
Original Marker Name: 6498                                  COMMENT
Campaign Name: USMC MCAGCC                                  COMMENT
4-Character Station Name: XERO                              COMMENT
6-Character Antenna Code: TRMSST                            COMMENT
Vertical Measurement Point: BGP                             COMMENT
Vertical Offset to Rinex Ref. Point: 0.0597                 COMMENT
Radial Measurement Point: NGP                               COMMENT
Radial Offset to Rinex Ref. Point: 0.2334                   COMMENT
Antenna Height from Field Measurement: 1.2450 m             COMMENT
Additional Antenna Identification Info.:                    COMMENT
Model 14532.00                                              COMMENT
Original XYZ: -2315073.9568 -4742339.0236 3571240.2014      COMMENT
New XYZ position is based on association with SCEC monument COMMENT
E1F2G9V3+0011. Position of that monument is believed to be  COMMENT
valid to within 1 m horizontally; vertical accuracy         COMMENT
should be no worse than 3-times this value.                 COMMENT
                                                            COMMENT
Revised Rinex header created by UCSD GPS archive for        COMMENT
GSAC on 10-Aug-2000 (2000:223) 22:09:07 GMT                 COMMENT
For assistance contact dagnew@ucsd.edu                      COMMENT
or anderson@python.ucsd.edu                                 COMMENT
                                                            COMMENT
XEROX                                                       MARKER NAME
____0001                                                    MARKER NUMBER
-Unknown- 11TH ARTILLERY US MARINE CORPS                    OBSERVER / AGENCY
16498 TRIMBLE MSGR NP 7.56; SP 3.52                         REC # / TYPE / VERS
UNKNOWN TR 4000SST L1/L2 GEO                                ANT # / TYPE
 -2315077.6785 -4742340.9461  3571242.3914                  APPROX POSITION XYZ
        1.1632        0.0000        0.0000                  ANTENNA: DELTA H/E/N
     1     1     0                                          WAVELENGTH FACT L1/2
     6    L1    L2    P1    P2    S1    S2                  # / TYPES OF OBSERV
     0                                                      INTERVAL
  1997    10     3     2    55   15.000000                  TIME OF FIRST OBS
  1997    10     3     3    32   15.000000                  TIME OF LAST OBS
                                                            END OF HEADER
 97 10  3  2 55 15.0000000  0  6G 3G10G16G18G19G27
     21689.40515     16260.48615  23143289.563    23143295.273           9.250
         9.500
    -44065.03813    -34335.96115  24288424.961    24288431.273           5.000
         5.750
     87171.52115     67925.68115  23455302.516    23455309.672           7.750
         9.500
     21607.80017     16837.69116  20108519.320    20108524.680          21.750
        20.000
    -16177.80016    -12605.72616  20644575.750    20644581.566          18.250
        19.250
    -57506.69115    -44810.98316  22885189.758    22885195.590          10.500
        12.500
 97 10  3  2 55 30.0000000  0  6G 3G10G16G18G19G27
     34502.148 5     26244.442 5  23145727.844    23145733.551           8.750
         9.750
    -69219.455 2    -53936.797 5  24283637.430    24283643.762           4.750
         5.500
    137604.874 5    107224.392 5  23464899.914    23464906.727           7.500
         9.500
     34363.200 7     26776.965 6  20110946.797    20110951.945          21.750
        20.000
    -25335.574 6    -19741.646 6  20642833.055    20642838.871          18.000
        19.500
    -90573.398 5    -70577.224 6  22878897.008    22878903.371          10.250
        12.500
 97 10  3  2 55 45.0000000  0  6G 3G10G16G18G19G27
     47524.145 5     36391.447 5  23148205.547    23148211.488           8.750
         9.500
    -94180.776 2    -73387.185 5  24278887.828    24278893.191           4.750
         5.250
    188135.883 5    146599.193 5  23474515.539    23474522.215           7.750
         9.250
     47320.892 7     36873.853 6  20113412.469    20113417.641          22.000
        20.000
    -34371.246 6    -26782.430 6  20641113.695    20641119.406          18.000
        19.500
   -123567.704 5    -96287.073 6  22872619.516    22872625.023          10.750
        12.500
 97 10  3  2 55 59.9990000  0  6G 2G 3G16G18G19G27
         2.13114         1.85415  24071939.667    24071945.812           6.250
         7.250
     60747.744 5     46695.549 5  23150721.722    23150727.647           8.750
         9.500
    238751.893 5    186040.228 5  23484147.714    23484154.534           7.500
         9.250
     60473.094 7     47122.317 6  20115915.198    20115920.425          21.750
        19.750
    -43289.870 6    -33732.008 6  20639416.495    20639422.257          18.000
        19.250
   -156492.332 5   -121942.615 6  22866353.956    22866359.526          11.000
        12.500
 97 10  3  2 56 14.9990000  0  7G 2G 3G31G16G18G19G27
    -41395.846 4    -32256.273 5  24064061.690    24064068.335           6.250
         7.250
     74173.742 5     57157.375 5  23153276.628    23153282.562           8.500
         9.250
    -19262.304 6     -2136.35816  21884303.956    21884309.105          13.250
        14.250
    289454.352 5    225548.617 5  23493795.870    23493802.429           7.500
         9.000
     73822.057 7     57524.103 6  20118455.284    20118460.503          22.000
        19.750
    -52096.418 6    -40594.251 6  20637740.690    20637746.366          18.250
        19.250
   -189348.034 5   -147544.454 6  22860101.339    22860107.112          10.500
        12.250
 97 10  3  2 56 29.9990000  4  1
0.000                                                       COMMENT
 97 10  3  2 56 29.9990000  0  7G 2G 3G31G16G18G19G27
    -82685.548 4    -64430.034 5  24056204.362    24056211.495           6.250
         7.500
     87794.650 5     67771.068 5  23155868.753    23155874.601           8.750
         9.250
    -39724.990 6    -18081.291 6  21880409.925    21880415.327          13.500
        14.750
    340231.052 5    265114.872 5  23503458.472    23503465.339           7.500
         9.250
     87358.796 7     68072.209 6  20121031.339    20121036.815          21.500
        20.000
    -60795.094 6    -47372.438 6  20636085.355    20636091.089          18.250
        19.500
   -222139.616 5   -173096.313 6  22853861.167    22853866.862          10.250
        12.250
 97 10  3  2 56 44.9990000  0  7G 2G 3G31G16G18G19G27
   -123873.780 4    -96524.723 5  24048366.675    24048372.968           6.250
         7.250
    101598.666 5     78527.452 5  23158495.722    23158501.386           9.000
         9.500
    -60010.612 6    -33888.261 6  21876549.698    21876555.011          13.500
        14.500
    391071.229 4    304730.594 5  23513132.386    23513139.706           7.000
         9.250
    101073.324 7     78758.856 6  20123641.222    20123646.534          21.250
        20.000
    -69392.129 6    -54071.425 6  20634449.386    20634455.054          18.250
        19.250
   -254873.885 5   -198603.525 6  22847632.159    22847637.886          10.250
        12.250
 97 10  3  2 56 59.9990000  0  7G 2G 3G31G16G18G19G27
   -164962.042 4   -128541.515 5  24040547.667    24040554.554           6.250
         7.500
    115581.838 5     89423.429 5  23161156.519    23161162.343           8.750
         9.250
    -80120.346 6    -49558.176 6  21872722.948    21872728.351          13.250
        14.500
    441975.102 4    344395.938 5  23522819.534    23522826.550           7.250
         9.250
    114962.330 7     89581.450 6  20126284.136    20126289.538          21.250
        20.000
    -77889.790 6    -60692.971 6  20632832.401    20632838.198          18.000
        19.500
   -287550.756 5   -224066.002 6  22841414.042    22841420.081          10.750
        12.750
 97 10  3  2 57 14.9990000  0  7G 2G 3G31G16G18G19G27
   -205954.377 4   -160483.553 5  24032747.565    24032753.710           6.500
         7.750
    129742.552 5    100457.762 5  23163851.300    23163856.776           9.000
         9.250
   -100053.706 6    -65090.645 6  21868929.792    21868934.933          13.500
        14.500
    492941.932 4    384110.336 5  23532518.245    23532525.206           7.250
         9.250
    129027.110 7    100541.017 6  20128960.581    20128965.862          21.250
        20.250
    -86291.118 6    -67239.458 6  20631233.644    20631239.288          18.250
        19.500
   -320168.907 5   -249482.719 6  22835206.925    22835212.800          10.750
        12.750
 97 10  3  2 57 29.9990000  0  7G 2G 3G31G16G18G19G27
   -246853.899 4   -192353.284 5  24024964.394    24024970.667           6.750
         7.500
    144077.804 5    111628.096 5  23166579.206    23166584.835           8.750
         9.250
   -119811.344 6    -80486.196 6  21865170.230    21865175.370          13.500
        14.750
    543970.534 4    423872.876 5  23542228.722    23542235.605           7.250
         9.250
    143265.324 7    111635.739 6  20131670.050    20131675.284          21.250
        20.000
    -94603.403 6    -73716.552 6  20629651.706    20629657.491          18.250
        19.500
   -352727.973 5   -274853.401 6  22829011.276    22829016.687          11.000
        12.500
 97 10  3  2 57 44.9990000  0  7G 2G 3G31G16G18G19G27
   -287661.360 4   -224151.259 5  24017199.019    24017205.147           6.500
         7.750
    158585.001 5    122932.408 5  23169339.761    23169345.452           8.750
         9.250
   -139390.774 6    -95742.889 6  21861444.331    21861449.601          13.500
        15.000
    595060.329 4    463683.095 5  23551950.909    23551957.761           7.000
         9.250
    157676.678 7    122865.360 6  20134412.573    20134417.780          21.500
        20.000
   -102826.566 6    -80124.207 6  20628086.894    20628092.687          18.250
        19.750
   -385225.500 5   -300176.141 6  22822827.331    22822832.366          11.000
        12.250
 97 10  3  2 57 59.9990000  0  7G 2G 3G31G16G18G19G27
   -328380.848 4   -255880.694 5  24009449.831    24009457.226           6.250
         8.000
    173263.013 5    134369.818 5  23172133.050    23172138.749           9.000
         9.250
   -158793.450 6   -110861.841 6  21857751.987    21857757.280          13.500
        14.500
    646204.996 4    503536.073 5  23561682.987    23561690.601           6.750
         9.500
    172257.847 7    134227.316 6  20137187.245    20137192.530          21.750
        20.000
   -110961.690 6    -86463.263 6  20626538.847    20626544.718          18.250
        19.750
   -417662.476 5   -325451.679 6  22816654.245    22816659.995          10.500
        12.750
 97 10  3  2 58 14.9990000  0  7G 2G 3G31G16G18G19G27
   -369018.148 4   -287546.093 5  24001716.745    24001723.284           6.500
         7.750
    188108.066 5    145937.395 5  23174957.901    23174963.605           8.500
         9.500
   -178025.132 6   -125847.556 6  21854092.269    21854097.644          13.500
        14.750
    697400.928 4    543428.993 5  23571425.355    23571432.534           7.250
         9.250
    187005.631 7    145719.090 6  20139993.675    20139998.890          21.500
        20.000
   -119014.156 6    -92737.903 6  20625006.550    20625012.319          18.250
        19.750
   -450041.400 5   -350682.000 6  22810493.151    22810498.819          10.750
        12.750
 97 10  3  2 58 29.9990000  0  7G 2G 3G31G16G18G19G27
   -409574.301 4   -319148.263 5  23993999.245    23994006.288           6.250
         8.000
    203117.573 5    157633.119 5  23177814.151    23177819.733           9.250
         9.500
   -197086.674 6   -140700.700 6  21850465.175    21850470.460          13.500
        14.750
    748649.690 4    583363.080 5  23581177.815    23581184.894           6.750
         9.250
    201920.488 7    157341.044 6  20142831.745    20142837.069          21.250
        20.000
   -126986.469 6    -98950.100 6  20623489.425    20623495.194          18.250
        19.500
   -482365.596 5   -375869.681 6  22804341.878    22804348.026          11.000
        13.000
 97 10  3  2 58 44.9990000  0  7G 2G 3G31G16G18G19G27
   -450050.157 4   -350687.847 5  23986296.753    23986303.913           6.250
         8.250
    218290.720 5    169456.353 5  23180701.487    23180706.851           8.750
         9.500
   -215978.535 6   -155421.630 6  21846870.331    21846875.358          14.250
        14.250
    799951.329 4    623338.374 5  23590940.347    23590947.296           6.750
         9.250
    217002.827 7    169093.515 6  20145701.737    20145706.976          21.500
        20.000
   -134879.331 6   -105100.368 6  20621987.495    20621993.214          18.250
        19.500
   -514636.332 5   -401015.683 6  22798201.065    22798206.858          11.000
        13.000
 97 10  3  2 58 59.9990000  0  7G 2G 3G31G16G18G19G27
   -490441.567 4   -382161.654 5  23978610.737    23978617.374           6.500
         8.000
    233633.970 5    181412.134 5  23183621.237    23183626.866           8.750
         9.250
   -234699.222 6   -170009.171 6  21843307.823    21843312.753          14.250
        14.750
    851312.887 4    663360.340 5  23600713.698    23600720.847           6.750
         9.250
    232259.050 7    180981.475 6  20148605.003    20148610.147          21.750
        19.750
   -142691.654 6   -111187.898 6  20620500.894    20620506.589          18.250
        19.750
   -546844.931 5   -426113.292 6  22792072.026    22792077.444          11.250
        12.750
 97 10  3  2 59 14.9990000  0  7G 2G 3G31G16G18G19G27
   -530750.610 4   -413571.261 5  23970940.269    23970946.960           6.500
         8.500
    249149.398 5    193502.077 5  23186573.573    23186579.468           9.000
         9.500
   -253252.359 6   -184466.159 6  21839777.206    21839782.214          14.250
        14.250
    902731.882 4    703427.083 5  23610498.831    23610505.726           7.000
         9.000
    247687.486 7    193003.626 6  20151540.980    20151546.233          21.250
        20.000
   -150426.075 6   -117214.719 6  20619029.245    20619034.999          17.750
        19.500
   -578992.485 5   -451163.332 6  22785954.456    22785959.847          11.250
        12.750
 97 10  3  2 59 29.9990000  0  7G 2G 3G31G16G18G19G27
   -570981.238 4   -444919.769 5  23963283.925    23963291.245           6.250
         8.250
    264835.693 5    205725.163 5  23189558.628    23189564.444           9.000
         9.250
   -271643.222 6   -198796.688 6  21836277.456    21836282.679          14.250
        14.500
    954200.979 4    743532.860 5  23620292.870    23620300.085           6.750
         9.000
    263284.117 7    205156.836 6  20154508.956    20154514.202          21.500
        20.000
   -158085.825 6   -123183.350 6  20617571.581    20617577.230          18.250
        19.500
   -611084.606 5   -476170.153 6  22779847.253    22779852.999          11.000
        13.000
 97 10  3  2 59 44.9990000  0  7G 2G 3G31G16G18G19G27
   -611130.151 4   -476204.619 5  23955644.331    23955651.296           6.250
         8.250
    280694.705 5    218082.842 5  23192576.612    23192582.284           8.750
         9.500
   -289869.967 6   -212999.349 6  21832808.940    21832814.210          14.250
        14.500
   1005720.362 4    783677.819 5  23630096.675    23630103.800           6.750
         8.750
    279047.199 7    217439.750 6  20157508.589    20157513.851          21.500
        20.250
   -165664.972 6   -129089.174 6  20616129.378    20616134.995          18.000
        19.500
   -643121.550 5   -501134.005 6  22773751.058    22773756.940          11.250
        13.250
 97 10  3  2 59 59.9990000  0  7G 2G 3G31G16G18G19G27
   -651198.089 4   -507426.344 5  23948019.433    23948026.503           6.250
         8.250
    296727.463 5    230575.907 5  23195627.409    23195633.038           8.750
         9.500
   -307932.469 6   -227074.003 6  21829371.761    21829376.952          14.250
        14.250
   1057289.253 4    823861.366 5  23639910.011    23639917.183           6.750
         8.750
    294975.479 7    229851.396 6  20160539.675    20160544.929          21.750
        20.250
   -173163.009 6   -134931.797 6  20614702.597    20614708.077          18.250
        19.250
   -675107.756 5   -526058.297 6  22767664.050    22767669.851          11.000
        12.750
 97 10  3  3  0 14.9990000  0  7G 2G 3G31G16G18G19G27
   -691185.991 4   -538585.707 5  23940410.222    23940417.401           6.250
         8.000
    312935.575 5    243205.614 5  23198711.683    23198717.378           8.500
         9.250
   -325830.430 6   -241020.468 6  21825965.972    21825971.062          14.500
        14.250
   1108909.287 4    864084.758 5  23649733.440    23649739.831           6.500
         8.750
    311068.563 7    242391.461 6  20163602.151    20163607.358          21.500
        20.000
   -180583.062 6   -140713.651 6  20613290.370    20613295.870          18.500
        19.250
   -707044.495 5   -550944.069 6  22761586.823    22761592.335          11.000
        13.500
 97 10  3  3  0 29.9990000  0  7G 2G 3G31G16G18G19G27
   -731094.143 4   -569682.953 5  23932815.542    23932822.308           6.250
         8.000
    329315.968 5    255969.552 5  23201828.792    23201834.476           9.250
         9.250
   -343565.079 6   -254839.670 6  21822591.058    21822596.120          14.250
        14.500
   1160577.078 4    904345.350 5  23659564.847    23659572.120           6.500
         8.750
    327324.498 7    255058.422 6  20166695.347    20166700.452          21.250
        19.750
   -187928.971 6   -146437.737 6  20611892.503    20611898.022          18.500
        19.250
   -738933.752 5   -575792.820 6  22755518.542    22755524.093          11.000
        13.000
 97 10  3  3  0 44.9990000  0  7G 2G 3G31G16G18G19G27
   -770929.139 3   -600723.199 5  23925235.581    23925242.483           6.000
         7.750
    345860.624 5    268861.504 5  23204977.034    23204982.737           9.250
         9.000
   -361140.605 6   -268534.870 6  21819246.948    21819252.054          14.250
        14.250
   1212283.504 4    944636.069 5  23669404.245    23669411.515           6.500
         8.500
    343734.594 7    267845.512 6  20169818.167    20169823.499          21.250
        20.250
   -195206.192 6   -152108.298 6  20610507.823    20610513.437          18.250
        19.250
   -770784.488 5   -600611.556 6  22749457.198    22749463.069          10.750
        12.750
 97 10  3  3  0 59.9990000  0  7G 2G 3G31G16G18G19G27
   -810693.942 4   -631708.691 5  23917668.753    23917675.569           6.500
         8.500
    362569.082 5    281881.092 5  23208156.948    23208162.425           9.250
         9.250
   -378555.152 6   -282104.644 6  21815932.776    21815937.890          14.500
        14.250
   1264025.707 4    984954.656 5  23679250.714    23679257.444           6.750
         8.750
    360295.556 7    280750.148 6  20172969.550    20172974.730          21.250
        20.000
   -202412.739 6   -157723.779 6  20609136.370    20609141.823          18.500
        19.000
   -802597.570 5   -625400.953 6  22743403.448    22743409.421          10.750
        13.000
 97 10  3  3  1 14.9990000  0  7G 2G 3G31G16G18G19G27
   -850383.097 4   -662635.298 5  23910115.495    23910122.745           6.500
         8.250
    379443.856 5    295030.266 5  23211367.901    23211373.464           9.250
         9.250
   -395799.350 6   -295541.673 6  21812651.245    21812656.261          14.500
        14.500
   1315807.203 4   1025303.871 5  23689104.534    23689111.749           6.750
         8.750
    377010.678 7    293774.918 6  20176150.339    20176155.573          21.250
        20.000
   -209540.433 6   -163277.819 6  20607780.097    20607785.632          18.250
        19.000
   -834369.711 5   -650158.454 6  22737357.683    22737363.624          11.000
        13.250
 97 10  3  3  1 29.9990000  0  7G 2G 3G31G16G18G19G27
   -889997.707 4   -693503.781 5  23902577.542    23902584.257           6.750
         8.500
    396480.005 5    308305.191 5  23214609.644    23214615.230           9.250
         9.250
   -412874.478 6   -308846.960 6  21809401.839    21809407.081          14.250
        14.500
   1367623.415 4   1065680.128 5  23698964.878    23698971.397           6.750
         8.750
    393879.874 7    306919.748 6  20179360.394    20179365.612          21.250
        20.000
   -216587.882 6   -168769.339 6  20606438.925    20606444.343          18.500
        19.000
   -866107.217 5   -674888.965 6  22731317.980    22731323.897          10.750
        13.250
 97 10  3  3  1 44.9990000  0  7G 2G 3G31G16G18G19G27
   -929537.855 4   -724314.270 5  23895053.370    23895060.343           6.750
         8.250
    413672.038 5    321701.581 5  23217881.011    23217886.980           8.750
         9.500
   -429784.517 6   -322023.607 6  21806183.925    21806189.132          14.000
        14.250
   1419472.133 4   1106081.712 5  23708831.105    23708838.358           6.750
         9.000
    410900.269 7    320182.391 6  20182599.245    20182604.550          21.250
        20.250
   -223556.081 6   -174199.098 6  20605112.956    20605118.339          18.250
        19.250
   -897815.428 5   -699596.648 6  22725283.972    22725290.124          10.500
        13.250
 97 10  3  3  1 59.9990000  0  7G 2G 3G31G16G18G19G27
   -969002.624 4   -755066.019 5  23887543.714    23887550.105           6.750
         8.500
    431016.149 5    335216.468 5  23221181.737    23221187.452           8.750
         9.250
   -446530.321 6   -335072.280 6  21802997.581    21803002.573          14.750
        15.000
   1471354.723 4   1146509.698 5  23718703.823    23718711.339           6.500
         8.750
    428073.824 7    333564.375 6  20185867.308    20185872.562          21.250
        20.500
   -230448.781 6   -179570.031 6  20603801.222    20603806.839          18.250
        19.500
   -929492.880 5   -724280.358 6  22719255.956    22719261.780          10.750
        13.000
 97 10  3  3  2 14.9990000  0  7G 2G 3G31G16G18G19G27
  -1008390.134 4   -785757.555 5  23880048.331    23880055.194           6.750
         8.500
    448514.512 5    348851.572 5  23224511.214    23224516.995           8.500
         9.000
   -463112.777 6   -347993.661 6  21799841.862    21799847.202          14.500
        15.000
   1523271.394 4   1186964.232 5  23728583.776    23728590.565           6.250
         8.500
    445403.522 7    347068.038 6  20189165.019    20189170.351          21.250
        20.500
   -237267.895 6   -184883.621 6  20602503.511    20602509.089          18.250
        19.250
   -961138.090 5   -748938.963 6  22713234.065    22713239.788          10.500
        13.000
 97 10  3  3  2 29.9990000  0  7G 2G 3G31G16G18G19G27
  -1047698.021 4   -816387.043 5  23872568.050    23872574.827           6.750
         8.500
    466164.701 5    362604.963 5  23227870.003    23227875.855           8.750
         9.500
   -479533.019 6   -360788.648 6  21796717.315    21796722.562          14.500
        14.750
   1575218.937 4   1227442.850 5  23738469.128    23738475.960           6.500
         8.500
    462887.666 7    360692.045 6  20192491.964    20192497.339          21.000
        20.250
   -244010.943 6   -190137.942 6  20601220.464    20601225.925          18.250
        19.250
   -992747.250 5   -773569.471 6  22707219.206    22707224.808          10.750
        13.250
 97 10  3  3  2 44.9990000  0  7G 2G 3G31G16G18G19G27
  -1086929.714 4   -846957.173 5  23865102.628    23865109.390           6.750
         8.750
    483960.989 5    376472.200 5  23231256.714    23231262.296           8.500
         9.500
   -495795.867 6   -373460.987 6  21793622.487    21793627.730          14.500
        14.750
   1627190.017 4   1267939.773 5  23748358.503    23748365.362           6.250
         8.250
    480519.882 7    374431.434 6  20195847.534    20195852.890          21.000
        20.250
   -250678.901 6   -195333.744 6  20599951.487    20599957.132          18.000
        19.250
  -1024327.085 5   -798177.118 6  22701209.480    22701215.495          11.000
        13.750
 97 10  3  3  2 59.9990000  0  7G 2G 3G31G16G18G19G27
  -1126082.875 4   -877466.108 5  23857652.362    23857658.456           6.750
         8.500
    501910.639 5    390458.947 5  23234672.331    23234678.101           8.750
         9.250
   -511896.505 6   -386006.937 6  21790558.730    21790563.933          14.500
        14.750
   1679191.050 3   1308460.056 5  23758253.605    23758261.296           6.000
         8.250
    498303.716 7    388288.964 6  20199231.636    20199236.897          21.000
        20.250
   -257265.910 6   -200466.478 6  20598698.112    20598703.718          18.250
        19.250
  -1055874.331 5   -822759.373 6  22695206.144    22695212.202          10.750
        13.250
 97 10  3  3  3 14.9990000  0  8G 2G 3G31G16G18G19G10G27
  -1165159.676 4   -907915.540 5  23850215.878    23850222.679           6.750
         8.500
    520011.432 5    404563.464 5  23238117.284    23238122.671           9.000
         9.250
   -527837.644 6   -398428.602 6  21787525.456    21787530.507          14.750
        14.750
   1731220.545 4   1349002.505 5  23768155.136    23768161.831           6.250
         8.000
    516235.762 7    402261.983 6  20202644.081    20202649.292          21.250
        20.500
   -263775.919 6   -205539.214 6  20597459.183    20597464.858          18.250
        19.250
    -10755.98312                                  24151032.972           4.500

  -1087390.280 5   -847317.242 6  22689209.128    22689215.015          10.750
        13.500
 97 10  3  3  3 29.9990000  0  8G 2G 3G31G16G18G19G10G27
  -1204154.556 4   -938301.142 5  23842795.308    23842802.077           6.750
         8.500
    538267.349 5    418788.859 5  23241591.034    23241596.741           8.750
         9.250
   -543620.257 6   -410726.726 6  21784522.105    21784527.101          14.500
        14.750
   1783281.732 4   1389569.654 5  23778062.050    23778068.999           6.250
         8.000
    534319.273 7    416353.028 6  20206085.144    20206090.421          21.250
        20.500
   -270210.534 6   -210553.193 6  20596234.745    20596240.452          18.000
        19.250
    -30816.383 3                                  24147215.815           5.000

  -1118872.845 5   -871849.100 6  22683217.980    22683223.940          10.750
        13.250
 97 10  3  3  3 44.9990000  0  8G 2G 3G31G16G18G19G10G27
  -1243068.267 4   -968623.494 5  23835390.636    23835397.015           7.000
         8.500
    556680.969 5    433137.133 5  23245094.972    23245100.608           8.750
         9.250
   -559247.251 6   -422903.602 6  21781548.245    21781553.472          14.500
        14.750
   1835374.038 4   1430161.042 5  23787974.839    23787981.444           6.250
         7.750
    552551.982 7    430560.327 6  20209554.784    20209560.026          21.250
        20.750
   -276572.706 6   -215510.730 6  20595024.128    20595029.890          18.000
        19.250
     -2646.69713                                  24143425.464           5.750

  -1150321.538 5   -896354.557 6  22677233.370    22677239.460          10.750
        13.250
 97 10  3  3  3 59.9990000  0  8G 2G 3G31G16G18G19G10G27
  -1281901.016 4   -998882.748 5  23828001.269    23828007.667           7.250
         8.750
    575254.294 5    447609.866 5  23248629.050    23248635.022           8.750
         9.250
   -574712.785 6   -434954.666 6  21778605.323    21778610.601          14.500
        15.000
   1887498.355 3   1470777.393 5  23797893.214    23797900.718           6.000
         8.000
    570934.209 7    444884.141 6  20213052.784    20213058.093          21.250
        20.750
   -282863.387 6   -220412.555 6  20593826.909    20593832.690          18.000
        19.250
    -22420.675 3    -11287.44615  24139662.480    24139668.276           5.500
         6.000
  -1181730.969 5   -920829.428 6  22671256.706    22671262.589          11.000
        13.250
 97 10  3  3  4 14.9990000  0  8G 2G 3G31G16G18G19G10G27
  -1320660.818 4  -1029085.183 5  23820625.237    23820631.522           7.250
         8.500
    593982.391 5    462203.195 5  23252193.128    23252198.659           8.750
         9.250
   -590019.155 6   -446881.692 6  21775692.573    21775697.843          14.500
        15.000
   1939647.086 3   1511412.759 5  23807817.230    23807824.433           6.000
         8.000
    589460.216 7    459319.987 6  20216578.128    20216583.491          21.250
        21.000
   -289087.164 6   -225262.248 6  20592642.589    20592648.245          17.750
        19.250
    -42051.262 3    -26584.001 5  24135926.980    24135932.601           5.000
         5.750
  -1213104.319 5   -945276.189 6  22665286.386    22665292.366          11.000
        13.250
 97 10  3  3  4 29.9990000  0  8G 2G 3G31G16G18G19G10G27
  -1359348.602 4  -1059231.497 5  23813262.753    23813269.808           7.250
         8.750
    612865.708 5    476917.464 5  23255786.433    23255791.952           8.750
         9.250
   -605163.158 6   -458682.209 6  21772810.784    21772815.866          14.500
        14.750
   1991816.591 4   1552064.300 5  23817744.737    23817751.444           6.250
         7.750
    608127.685 7    473866.070 6  20220130.448    20220135.929          21.250
        21.000
   -295242.033 6   -230058.246 6  20591471.487    20591477.132          18.000
        19.250
    -61536.551 3    -41767.336 5  24132218.815    24132224.960           5.000
         6.000
  -1244442.450 5   -969695.500 6  22659323.034    22659328.940          11.000
        13.500
 97 10  3  3  4 44.9990000  0  8G 2G 3G31G16G18G19G10G27
  -1397968.532 4  -1089324.933 5  23805913.839    23805920.210           7.250
         8.750
    631900.169 5    491749.521 5  23259408.683    23259414.233           8.750
         9.250
   -620145.446 6   -470356.709 6  21769959.472    21769964.624          14.500
        14.750
   2044004.904 4   1592730.512 5  23827675.972    23827683.116           6.250
         8.000
    626935.877 7    488521.799 6  20223709.605    20223714.968          21.250
        21.000
   -301330.640 6   -234802.612 6  20590312.901    20590318.616          17.750
        19.250
    -80876.972 2    -56837.771 5  24128537.331    24128544.991           4.750
         6.250
  -1275749.543 5   -994090.628 6  22653365.605    22653371.440          11.250
        13.500
 97 10  3  3  4 59.9990000  0  8G 2G 3G31G16G18G19G10G27
  -1436520.871 4  -1119365.702 5  23798578.073    23798584.069           7.250
         8.750
    651089.606 5    506702.319 5  23263060.237    23263065.702           8.750
         9.250
   -634964.179 6   -481903.767 6  21767139.605    21767144.651          14.500
        14.750
   2096214.865 4   1633413.598 5  23837611.519    23837618.085           6.250
         7.750
    645888.644 7    503290.186 6  20227316.058    20227321.409          21.250
        21.000
   -307355.785 6   -239497.531 6  20589166.183    20589171.956          18.250
        19.500
   -100070.185 3    -71793.516 5  24124886.112    24124892.886           5.000
         6.500
  -1307026.699 5  -1018462.433 6  22647413.472    22647419.554          11.000
        13.500
 97 10  3  3  5 14.9990000  0  8G 2G 3G31G16G18G19G10G27
  -1475006.007 4  -1149354.101 5  23791253.901    23791260.737           7.250
         8.750
    670433.329 5    521775.357 5  23266741.448    23266747.077           8.500
         9.250
   -649619.033 6   -493323.119 6  21764350.831    21764355.855          14.500
        14.750
   2148448.433 4   1674115.064 5  23847551.378    23847557.839           6.500
         7.750
    664988.221 7    518172.970 6  20230950.651    20230955.948          21.250
        21.000
   -313320.395 6   -244145.272 6  20588031.308    20588037.022          18.000
        19.250
   -119116.368 3    -86634.694 5  24121261.386    24121268.534           5.250
         6.500
  -1338271.640 5  -1042809.125 6  22641467.605    22641473.667          11.000
        13.500
 97 10  3  3  5 29.9990000  0  8G 2G 3G31G16G18G19G10G27
  -1513421.426 4  -1179288.179 5  23783944.222    23783950.358           7.250
         8.750
    689930.313 5    536967.814 5  23270451.190    23270457.116           8.500
         9.250
   -664110.319 6   -504615.027 6  21761593.206    21761598.319          14.500
        14.500
   2200705.458 3   1714834.824 5  23857495.065    23857502.378           6.000
         7.750
    684238.625 7    533173.284 6  20234613.855    20234619.124          21.250
        20.500
   -319224.851 6   -248746.147 6  20586907.472    20586913.183          18.000
        19.500
   -138014.714 3   -101360.667 5  24117665.831    24117671.991           5.500
         6.250
  -1369481.542 5  -1067128.518 6  22635528.730    22635534.519          11.250
        13.250
 97 10  3  3  5 44.9990000  0  8G 2G 3G31G16G18G19G10G27
  -1551769.907 4  -1209170.104 5  23776646.417    23776653.108           7.250
         8.750
    709575.544 5    552275.791 5  23274189.644    23274195.495           8.500
         9.250
   -678443.278 6   -515783.558 6  21758865.769    21758870.905          14.500
        14.750
   2252982.830 4   1755570.429 5  23867442.917    23867449.897           6.250
         7.500
    703638.562 7    548290.120 6  20238305.542    20238310.702          21.000
        20.500
   -325072.449 6   -253302.713 6  20585794.878    20585800.519          18.000
        19.250
   -156768.992 3   -115974.379 5  24114095.917    24114102.757           5.250
         6.250
  -1400658.676 5  -1091422.387 6  22629596.308    22629601.757          11.250
        13.250
 97 10  3  3  5 59.9990000  0  8G 2G 3G31G16G18G19G10G27
  -1590054.091 4  -1239001.917 5  23769361.222    23769367.651           7.250
         9.000
    729366.553 5    567697.358 5  23277955.815    23277961.624           8.500
         9.250
   -692616.535 6   -526827.646 6  21756168.651    21756173.843          14.500
        14.750
   2305279.677 4   1796321.216 5  23877394.878    23877401.804           6.250
         7.500
    723188.108 7    563523.536 6  20242025.683    20242030.956          21.000
        20.750
   -330862.036 6   -257814.071 6  20584693.112    20584698.698          18.000
        19.250
   -175377.361 3   -130474.398 5  24110556.659    24110562.714           6.000
         6.500
  -1431804.657 5  -1115691.972 6  22623669.081    22623675.011          11.250
        13.500
 97 10  3  3  6 14.9990000  0  8G 2G 3G31G16G18G19G10G27
  -1628277.593 4  -1268786.443 5  23762087.378    23762093.991           7.250
         9.000
    749298.699 5    583228.902 5  23281748.745    23281754.737           8.250
         9.250
   -706635.268 6   -537751.321 6  21753500.925    21753506.151          14.500
        14.750
   2357593.228 3   1837085.016 5  23887349.753    23887356.417           6.000
         7.500
    742883.490 7    578870.586 6  20245773.644    20245778.913          21.000
        20.750
   -336597.123 6   -262282.972 6  20583601.745    20583607.417          18.250
        19.500
   -193844.437 3   -144864.309 5  24107040.792    24107047.534           5.500
         6.250
  -1462923.803 5  -1139940.644 6  22617747.050    22617753.175          11.250
        13.500
 97 10  3  3  6 29.9990000  0  8G 2G 3G31G16G18G19G10G27
  -1666438.418 4  -1298522.145 5  23754825.542    23754832.288           7.250
         8.750
    769374.634 5    598872.488 5  23285569.151    23285574.753           8.250
         9.250
   -720501.436 6   -548556.123 6  21750862.386    21750867.569          14.500
        14.750
   2409927.266 3   1877864.765 5  23897308.675    23897315.753           6.000
         7.500
    762725.795 7    594332.116 6  20249549.433    20249554.741          21.000
        20.750
   -342278.308 6   -266709.861 6  20582520.722    20582526.507          18.000
        19.250
   -212171.695 3   -159145.295 5  24103554.034    24103560.659           5.500
         6.500
  -1494017.215 5  -1164169.272 6  22611830.487    22611836.319          11.500
        13.500
 97 10  3  3  6 44.9990000  0  8G 2G 3G31G16G18G19G10G27
  -1704529.111 5  -1328203.188 5  23747576.987    23747583.276           7.500
         8.750
    789601.633 5    614633.789 5  23289417.987    23289423.905           8.250
         9.250
   -734210.069 6   -559238.160 6  21748253.886    21748258.827          14.500
        14.750
   2462291.327 3   1918667.926 5  23907273.073    23907279.862           6.000
         7.500
    782723.512 7    609914.744 6  20253354.808    20253360.179          21.000
        21.000
   -347899.841 6   -271090.279 6  20581450.933    20581456.636          18.250
        19.500
   -230355.964 3   -173314.840 5  24100092.855    24100101.136           5.000
         6.750
  -1525079.946 5  -1188373.983 6  22605919.698    22605925.101          11.500
        13.250
 97 10  3  3  6 59.9990000  0  8G 2G 3G31G16G18G19G10G27
  -1742550.845 5  -1357830.509 5  23740341.855    23740348.495           7.500
         9.000
    809978.571 5    630511.925 5  23293295.886    23293301.480           8.500
         9.000
   -747765.414 6   -569800.766 6  21745674.355    21745679.347          14.500
        14.750
   2514685.603 3   1959494.630 5  23917243.065    23917250.464           5.750
         7.500
    802875.802 7    625617.823 6  20257189.597    20257195.003          21.250
        21.000
   -353461.303 6   -275423.883 6  20580392.698    20580398.440          17.750
        19.250
   -248400.837 3   -187375.766 5  24096659.448    24096665.065           5.250
         6.000
  -1556111.318 5  -1212554.275 6  22600014.362    22600020.062          11.500
        13.250
 97 10  3  3  7 14.9990000  0  8G 2G 3G31G16G18G19G10G27
  -1780504.117 5  -1387404.468 5  23733120.073    23733126.085           7.750
         9.000
    830505.195 5    646506.704 5  23297201.823    23297207.503           8.250
         9.250
   -761166.418 6   -580243.095 6  21743124.026    21743129.230          14.500
        14.750
   2567109.658 3   2000344.545 5  23927219.573    23927226.397           5.750
         7.500
    823180.427 7    641439.613 6  20261053.495    20261058.823          21.000
        21.000
   -358959.829 6   -279708.442 6  20579346.151    20579351.921          17.750
        19.250
   -266307.171 3   -201328.735 5  24093251.605    24093258.632           5.000
         6.250
  -1587107.816 5  -1236707.369 6  22594115.714    22594121.702          11.250
        13.500
 97 10  3  3  7 29.9990000  0  8G 2G 3G31G16G18G19G10G27
  -1818385.885 5  -1416922.722 5  23725911.097    23725917.456           7.750
         9.000
    851182.310 5    662618.741 5  23301136.745    23301142.206           8.500
         9.250
   -774411.667 6   -590564.064 6  21740603.503    21740608.511          14.500
        14.750
   2619563.366 3   2041217.544 5  23937201.394    23937207.667           5.750
         7.250
    843637.330 7    657380.062 6  20264946.315    20264951.577          21.000
        20.750
   -364390.816 6   -283940.379 6  20578312.792    20578318.507          18.000
        19.250
   -284073.046 3   -215172.266 5  24089872.112    24089877.761           5.750
         6.250
  -1618066.369 5  -1260830.906 6  22588224.683    22588230.495          11.500
        13.500
 97 10  3  3  7 44.9990000  0  8G 2G 3G31G16G18G19G10G27
  -1856198.029 5  -1446386.720 5  23718715.698    23718722.546           7.750
         9.250
    872006.185 5    678845.145 5  23305099.175    23305104.894           8.500
         9.250
   -787503.787 6   -600765.711 6  21738112.206    21738117.394          14.500
        14.750
   2672041.014 3   2082109.206 5  23947187.214    23947194.144           5.500
         7.500
    864240.698 7    673434.637 6  20268867.019    20268872.261          21.250
        20.750
   -369756.888 6   -288121.727 6  20577291.730    20577297.397          18.000
        19.250
   -301701.482 3   -228908.720 5  24086517.144    24086522.690           5.750
         6.000
  -1648989.905 5  -1284927.162 6  22582340.222    22582345.562          11.500
        13.250
 97 10  3  3  7 59.9990000  0  8G 2G 3G31G16G18G19G10G27
  -1893937.334 5  -1475793.961 5  23711533.745    23711540.327           7.750
         9.000
    892981.844 5    695189.812 5  23309090.480    23309096.140           8.250
         9.250
   -800435.897 6   -610842.676 6  21735651.448    21735656.440          14.500
        14.750
   2724542.905 3   2123019.774 5  23957177.948    23957184.710           5.500
         7.250
    884991.446 7    689604.057 6  20272815.753    20272820.890          21.000
        20.750
   -375052.673 6   -292248.312 6  20576283.925    20576289.683          18.250
        19.250
   -319187.438 4   -242534.134 5  24083190.230    24083195.976           6.250
         6.500
  -1679877.375 5  -1308995.312 6  22576462.565    22576468.069          11.500
        13.250
 97 10  3  3  8 14.9990000  0  8G 2G 3G31G16G18G19G10G27
  -1931602.927 5  -1505143.757 5  23704366.581    23704373.448           7.750
         9.250
    914111.712 5    711654.646 5  23313111.480    23313117.245           8.250
         9.250
   -813206.008 6   -620793.406 6  21733221.284    21733226.183          14.500
        14.750
   2777067.440 3   2163947.970 5  23967173.011    23967180.206           5.250
         7.250
    905889.207 7    705888.027 6  20276792.401    20276797.730          21.250
        21.000
   -380274.842 6   -296317.534 6  20575290.089    20575295.784          18.000
        19.250
   -336529.723 3   -256047.597 5  24079889.284    24079894.565           5.750
         6.250
  -1710727.055 5  -1333034.013 6  22570591.573    22570597.593          11.250
        13.500
 97 10  3  3  8 29.9990000  0  8G 2G 3G31G16G18G19G10G27
  -1969196.102 5  -1534437.119 5  23697212.831    23697219.022           7.750
         9.250
    935393.877 5    728238.149 5  23317161.355    23317166.983           8.500
         9.250
   -825813.687 6   -630617.559 6  21730821.995    21730827.155          14.500
        14.750
   2829612.525 3   2204892.192 5  23977171.690    23977178.581           5.000
         7.250
    926933.584 7    722286.239 6  20280797.019    20280802.276          21.000
        21.000
   -385425.713 6   -300331.197 6  20574310.081    20574315.757          18.000
        19.000
   -353731.028 3   -269451.222 5  24076616.573    24076623.858           6.000
         7.250
  -1741538.084 5  -1357042.599 6  22564728.605    22564734.687          11.500
        14.000
 97 10  3  3  8 44.9990000  0  8G 2G 3G31G16G18G19G10G27
  -2006711.812 5  -1563670.119 5  23690073.448    23690080.171           7.750
         9.250
    956832.604 5    744943.659 5  23321241.089    23321246.964           8.250
         9.250
   -838255.515 6   -640312.487 6  21728454.214    21728459.503          14.500
        15.000
   2882179.167 3   2245853.188 5  23987174.980    23987182.585           5.000
         7.500
    948128.870 7    738802.047 6  20284830.409    20284835.765          21.000
        21.250
   -390500.322 6   -304285.436 6  20573344.261    20573349.960          18.000
        19.000
   -370785.573 3   -282740.434 5  24073370.300    24073378.120           5.500
         7.500
  -1772307.106 5  -1381018.441 6  22558873.628    22558879.569          11.500
        14.000
 97 10  3  3  8 59.9990000  0  8G 2G 3G31G16G18G19G10G27
  -2044155.524 5  -1592847.022 5  23682947.964    23682954.882           7.750
         9.250
    978419.730 5    761764.797 5  23325348.761    23325354.745           8.750
         9.250
   -850536.131 6   -649881.793 6  21726117.386    21726122.522          14.500
        15.000
   2934757.937 2   2286823.645 5  23997180.190    23997187.831           4.750
         7.250
    969467.604 7    755429.632 6  20288891.300    20288896.655          21.000
        21.250
   -395501.680 6   -308182.595 6  20572392.690    20572398.218          18.000
        19.000
   -387696.864 3   -295918.052 5  24070152.667    24070159.312           5.750
         7.250
  -1803038.779 5  -1404965.189 6  22553025.300    22553031.190          11.500
        13.750
 97 10  3  3  9 14.9990000  0  8G 2G 3G31G16G18G19G10G27
  -2081522.215 5  -1621963.894 5  23675837.683    23675844.308           7.750
         9.250
   1000159.558 5    778704.927 5  23329485.948    23329491.690           8.500
         9.000
   -862649.594 6   -659320.844 6  21723812.159    21723817.358          14.500
        15.000
   2987351.586 2   2327805.703 5  24007188.745    24007195.440           4.750
         7.250
    990951.241 7    772170.119 6  20292979.386    20292984.788          21.000
        21.250
   -400428.407 6   -312021.604 6  20571455.112    20571460.671          18.500
        19.250
   -404457.066 3   -308977.924 5  24066962.573    24066970.616           5.500
         7.500
  -1833728.112 5  -1428878.950 6  22547185.651    22547191.026          11.750
        13.500
 97 10  3  3  9 29.9990000  0  8G 2G 3G31G16G18G19G10G27
  -2118811.182 5  -1651020.212 5  23668742.003    23668748.124           8.000
         9.250
   1022048.817 5    795761.493 5  23333651.511    23333657.026           8.750
         9.000
   -874595.731 6   -668629.514 6  21721539.151    21721544.198          14.750
        15.000
   3039961.147 3   2368800.147 5  24017200.573    24017207.206           5.000
         7.500
   1012577.120 7    789021.455 6  20297094.636    20297100.054          21.000
        21.250
   -405283.402 6   -315804.715 6  20570531.261    20570536.808          18.250
        18.750
   -421065.572 3   -321919.628 5  24063802.667    24063808.526           5.500
         6.750
  -1864378.644 5  -1452762.477 6  22541353.034    22541358.663          11.750
        14.000
 97 10  3  3  9 44.9990000  0  8G 2G 3G31G16G18G19G10G27
  -2156024.027 5  -1680017.210 5  23661660.190    23661666.890           8.000
         9.250
   1044083.268 5    812931.207 5  23337844.605    23337850.089           8.750
         9.000
   -886376.340 6   -677809.202 6  21719297.401    21719302.464          14.750
        15.000
   3092582.828 2   2409804.045 5  24027213.105    24027220.409           4.750
         7.250
   1034344.859 7    805983.316 6  20301236.940    20301242.378          21.000
        21.000
   -410071.495 6   -319535.691 6  20569620.105    20569625.565          18.250
        19.000
   -437524.260 3   -334744.551 5  24060670.167    24060678.327           5.500
         7.250
  -1894995.372 5  -1476619.646 6  22535526.315    22535532.491          11.250
        14.000
 97 10  3  3  9 59.9990000  0  8G 2G 3G31G16G18G19G10G27
  -2193162.032 5  -1708955.899 5  23654592.909    23654599.839           8.000
         9.250
   1066260.616 5    830212.258 5  23342064.792    23342070.132           8.750
         9.000
   -897994.224 6   -686862.089 6  21717086.620    21717091.772          14.750
        15.000
   3145215.852 3   2450816.785 5  24037228.972    24037236.593           5.000
         7.500
   1056254.795 7    823055.985 6  20305406.089    20305411.440          20.750
        21.000
   -414794.715 6   -323216.119 6  20568721.347    20568726.796          18.250
        19.000
   -453836.145 3   -347455.105 5  24057566.300    24057572.499           5.500
         6.500
  -1925581.753 5  -1500453.180 6  22529706.222    22529712.089          11.500
        14.250
 97 10  3  3 10 14.9990000  0  8G 2G 3G31G16G18G19G10G27
  -2230225.996 5  -1737836.887 5  23647540.253    23647546.726           8.000
         9.250
   1088581.840 5    847605.422 5  23346312.331    23346317.847           8.750
         9.000
   -909449.887 6   -695788.573 6  21714906.589    21714911.749          14.750
        15.000
   3197863.272 3   2491840.728 5  24047247.917    24047254.862           5.000
         7.250
   1078308.292 7    840240.520 6  20309602.714    20309608.054          21.000
        21.000
   -419451.945 6   -326845.133 6  20567835.144    20567840.612          18.250
        19.250
   -470002.742 3   -360052.467 5  24054490.894    24054497.722           5.750
         7.000
  -1956140.384 6  -1524265.090 6  22523891.331    22523896.917          12.250
        14.250
 97 10  3  3 10 29.9990000  0  8G 2G 3G31G16G18G19G10G27
  -2267217.381 5  -1766661.316 5  23640501.261    23640507.651           8.000
         9.250
   1111044.591 5    865108.866 5  23350586.769    23350592.753           8.500
         9.000
   -920746.162 6   -704590.861 6  21712756.776    21712762.011          14.750
        15.250
   3250527.569 2   2532877.830 5  24057268.909    24057276.741           4.750
         7.250
   1100505.354 7    857536.921 6  20313826.573    20313831.972          21.000
        21.000
   -424048.874 6   -330427.153 6  20566960.472    20566965.952          18.750
        19.250
   -486025.001 3   -372537.337 5  24051440.058    24051449.190           5.500
         7.500
  -1986671.263 5  -1548055.377 6  22518081.269    22518087.226          11.750
        14.250
 97 10  3  3 10 44.9990000  0  8G 2G 3G31G16G18G19G10G27
  -2304133.571 5  -1795427.156 5  23633476.019    23633482.847           8.000
         9.250
   1133648.556 5    882722.352 5  23354888.105    23354893.608           8.750
         9.000
   -931884.690 6   -713270.229 6  21710637.292    21710642.487          14.750
        15.250
   3303211.157 2   2573929.967 5  24067294.253    24067302.144           4.750
         7.250
   1122846.457 7    874945.565 6  20318077.933    20318083.304          21.000
        21.000
   -428584.387 6   -333961.317 6  20566097.347    20566102.839          18.250
        19.000
   -501900.960 3   -384908.216 5  24048421.042    24048425.808           5.750
         6.500
  -2017175.135 5  -1571824.609 6  22512276.550    22512282.491          11.750
        14.250
 97 10  3  3 10 59.9990000  0  8G 2G 3G31G16G18G19G10G27
  -2340977.754 5  -1824136.875 5  23626464.620    23626471.194           8.000
         9.500
   1156390.174 5    900443.093 5  23359215.917    23359221.421           8.750
         9.000
   -942869.122 6   -721829.517 6  21708547.081    21708552.151          15.000
        15.250
   3355911.873 3   2614995.451 5  24077323.792    24077330.339           5.000
         6.750
   1145326.393 7    892462.400 6  20322355.753    20322361.116          21.000
        21.000
   -433060.825 6   -337449.445 6  20565245.589    20565251.062          18.500
        19.000
   -517634.533 3   -397168.122 5  24045424.081    24045434.265           5.000
         7.500
  -2047656.324 6  -1595576.173 6  22506476.386    22506481.882          12.250
        14.250
 97 10  3  3 11 14.9990000  0  8G 2G 3G31G16G18G19G10G27
  -2377751.351 5  -1852791.595 5  23619466.605    23619473.644           8.000
         9.500
   1179270.724 5    918272.087 5  23363569.862    23363575.339           8.500
         9.000
   -953697.886 6   -730267.504 6  21706486.370    21706491.476          15.000
        15.000
   3408632.829 3   2656076.703 5  24087356.019    24087363.249           5.000
         7.250
   1167947.924 7    910089.569 6  20326660.612    20326666.015          21.000
        21.000
   -437477.845 6   -340891.281 6  20564405.042    20564410.386          18.500
        19.250
   -533225.769 3   -409317.140 5  24042460.667    24042465.144           6.000
         6.750
  -2078113.782 6  -1619309.247 6  22500680.401    22500685.960          12.250
        14.250
 97 10  3  3 11 29.9990000  0  8G 2G 3G31G16G18G19G10G27
  -2414453.710 5  -1881390.825 5  23612482.737    23612489.554           8.250
         9.750
   1202295.016 5    936213.098 5  23367951.253    23367956.726           8.500
         8.750
   -964369.508 6   -738583.046 6  21704455.745    21704460.827          15.000
        15.000
   3461375.218 3   2697174.659 5  24097392.565    24097399.827           5.000
         6.750
   1190715.157 7    927830.262 6  20330993.112    20330998.452          21.000
        21.000
   -441833.101 6   -344284.981 6  20563576.198    20563581.554          18.500
        19.250
   -548674.236 3   -421354.906 5  24039519.136    24039526.476           5.750
         7.250
  -2108545.839 6  -1643022.533 6  22494889.581    22494895.327          12.250
        14.500
 97 10  3  3 11 44.9990000  0  8G 2G 3G31G16G18G19G10G27
  -2451087.747 5  -1909936.794 5  23605511.792    23605518.245           8.250
         9.500
   1225463.647 5    954266.584 5  23372360.050    23372365.698           8.500
         9.000
   -974886.104 6   -746777.791 6  21702454.503    21702459.515          15.000
        15.000
   3514134.105 3   2738285.468 5  24107431.995    24107439.679           5.000
         6.750
   1213629.935 7    945685.929 6  20335353.706    20335358.956          21.000
        20.750
   -446123.642 6   -347628.261 6  20562759.706    20562765.093          18.750
        19.250
   -563980.775 3   -433282.066 5  24036607.526    24036613.093           6.000
         6.750
  -2138954.333 6  -1666717.446 6  22489103.026    22489108.886          12.500
        14.500
 97 10  3  3 11 59.9990000  0  8G 2G 3G31G16G18G19G10G27
  -2487654.886 5  -1938430.637 5  23598553.019    23598560.112           8.250
         9.750
   1248778.641 5    972434.107 5  23376796.659    23376802.499           8.500
         9.000
   -985249.616 6   -754853.243 6  21700482.339    21700487.437          15.000
        15.000
   3566907.005 3   2779407.214 5  24117474.206    24117480.905           5.000
         6.500
   1236689.674 7    963654.556 6  20339741.855    20339747.081          21.000
        21.000
   -450350.072 6   -350921.583 6  20561955.534    20561960.894          18.500
        19.250
   -579148.437 3   -445101.030 5  24033719.690    24033726.972           5.500
         7.000
  -2169340.373 6  -1690394.868 6  22483320.714    22483326.421          12.750
        14.500
 97 10  3  3 12 14.9990000  0  8G 2G 3G31G16G18G19G10G27
  -2524157.695 5  -1966874.367 5  23591606.417    23591612.855           8.500
         9.500
   1272240.005 5    990715.690 5  23381261.144    23381266.843           8.500
         8.750
   -995462.662 6   -762811.455 6  21698538.862    21698543.976          15.000
        15.000
   3619692.049 3   2820538.392 5  24127519.808    24127526.554           5.000
         6.750
   1259888.340 7    981731.433 6  20344156.464    20344161.651          21.000
        20.750
   -454516.251 6   -354167.950 6  20561162.675    20561167.940          18.500
        19.250
   -594178.632 3   -456812.862 5  24030859.730    24030867.612           5.500
         7.250
  -2199706.884 6  -1714057.077 6  22477542.245    22477547.612          12.750
        14.500
 97 10  3  3 12 29.9990000  0  8G 2G 3G31G16G18G19G10G27
  -2560596.304 5  -1995268.048 5  23584672.815    23584679.101           8.750
         9.500
   1295847.567 5   1009111.198 5  23385753.292    23385759.233           8.250
         9.000
  -1005523.644 6   -770651.169 6  21696624.284    21696629.444          15.250
        15.000
   3672487.593 2   2861677.789 5  24137565.073    24137573.202           4.750
         6.750
   1283223.982 7    999915.041 6  20348597.058    20348602.308          21.000
        21.000
   -458621.183 6   -357366.596 6  20560381.659    20560387.019          18.500
        19.250
   -609068.044 3   -468414.988 5  24028025.995    24028033.214           5.250
         7.250
  -2230050.945 6  -1737701.785 6  22471767.737    22471773.335          12.750
        14.500
 97 10  3  3 12 44.9990000  0  8G 2G 3G31G16G18G19G10G27
  -2596968.807 5  -2023610.240 5  23577751.308    23577757.550           8.750
         9.500
   1319603.197 5   1027622.090 5  23390274.214    23390279.737           8.250
         8.750
  -1015430.132 6   -778370.511 6  21694739.136    21694744.269          15.250
        15.250
   3725291.124 3   2902823.365 5  24147614.050    24147621.495           5.000
         6.500
   1306700.240 7   1018208.225 6  20353064.417    20353069.628          21.000
        21.000
   -462661.609 6   -360514.983 6  20559612.651    20559618.108          18.500
        19.500
   -623814.548 3   -479905.751 5  24025220.651    24025227.370           5.500
         7.250
  -2260367.125 6  -1761324.772 6  22465998.769    22466004.542          12.750
        14.750
 97 10  3  3 12 59.9990000  0  8G 2G 3G31G16G18G19G10G27
  -2633277.290 5  -2051902.533 5  23570841.769    23570848.132           8.750
         9.500
   1343505.079 5   1046246.924 5  23394822.206    23394827.999           8.250
         8.750
  -1025180.659 6   -785968.312 6  21692883.948    21692889.011          15.500
        15.250
   3778098.710 3   2943972.138 5  24157662.417    24157669.878           5.000
         6.250
   1330315.857 7   1036610.001 6  20357558.456    20357563.733          21.000
        21.000
   -466635.120 6   -363611.220 6  20558856.440    20558861.976          18.500
        19.500
   -638421.182 3   -491287.533 5  24022441.667    24022447.464           5.750
         7.000
  -2290656.857 6  -1784927.145 6  22460235.034    22460240.417          13.000
        14.750
 97 10  3  3 13 14.9990000  0  8G 2G 3G31G16G18G19G10G27
  -2669523.131 5  -2080146.019 5  23563944.761    23563950.823           8.500
         9.250
   1367555.862 5   1064987.809 5  23399399.269    23399405.015           8.500
         8.750
  -1034771.177 6   -793441.436 6  21691058.636    21691063.839          15.250
        15.000
   3830908.643 3   2985122.732 5  24167712.386    24167719.690           5.000
         6.750
   1354071.249 7   1055120.687 6  20362078.870    20362084.124          21.000
        21.000
   -470541.775 6   -366655.366 6  20558113.073    20558118.605          18.250
        19.500
   -652888.045 3   -502560.427 5  24019688.753    24019694.745           5.750
         7.000
  -2320919.079 6  -1808508.086 6  22454476.573    22454481.921          13.000
        14.750
 97 10  3  3 13 29.9990000  0  8G 2G 3G31G16G18G19G10G27
  -2705706.652 5  -2108340.939 5  23557059.019    23557065.308           8.750
         9.250
   1391753.043 5   1083842.766 5  23404003.714    23404009.429           8.250
         9.000
  -1044203.594 6   -800791.373 6  21689263.909    21689268.862          15.500
        15.000
   3883716.372 3   3026271.605 5  24177761.472    24177768.374           5.250
         6.500
   1377964.797 7   1073739.035 6  20366625.753    20366631.007          21.000
        21.000
   -474382.428 6   -369648.085 6  20557382.105    20557387.730          18.250
        19.500
   -667216.377 3   -513725.351 5  24016961.847    24016968.155           5.750
         7.000
  -2351153.943 6  -1832067.713 6  22448722.878    22448728.448          13.250
        14.750
 97 10  3  3 13 44.9990000  0  8G 2G 3G31G16G18G19G10G27
  -2741823.301 5  -2136483.770 5  23550185.948    23550192.437           8.500
         9.250
   1416094.159 5   1102809.860 5  23408635.722    23408641.272           8.500
         8.500
  -1053474.035 6   -808015.091 6  21687499.706    21687504.706          15.500
        15.000
   3936519.887 3   3067417.206 5  24187809.214    24187816.808           5.000
         6.500
   1401996.341 7   1092464.913 6  20371198.714    20371204.007          21.000
        21.000
   -478154.487 6   -372587.349 6  20556664.401    20556669.933          18.250
        19.500
   -681404.170 3   -524780.767 5  24014262.612    24014267.280           5.750
         6.500
  -2381359.799 6  -1855604.737 6  22442974.737    22442980.456          13.000
        14.750
 97 10  3  3 13 59.9990000  0  8G 2G 3G31G16G18G19G10G27
  -2777869.433 5  -2164571.631 5  23543326.800    23543333.167           8.500
         9.250
   1440577.017 5   1121887.415 5  23413294.847    23413300.511           8.500
         8.750
  -1062579.802 6   -815110.474 6  21685766.948    21685771.909          15.500
        15.000
   3989323.038 3   3108562.499 5  24197857.448    24197865.046           5.000
         6.500
   1426166.222 7   1111298.591 6  20375798.050    20375803.390          21.000
        21.000
   -481858.205 6   -375473.357 6  20555959.659    20555965.288          18.250
        19.500
   -695449.489 3   -535725.158 5  24011588.394    24011594.522           5.250
         6.500
  -2411533.495 6  -1879116.688 6  22437232.839    22437238.546          13.000
        14.750
 97 10  3  3 14 14.9990000  0  7G 2G 3G31G18G19G10G27
  -2813845.175 5  -2192604.653 5  23536480.925    23536487.202           8.750
         9.250
   1465200.415 5   1141074.474 5  23417980.276    23417985.980           8.750
         8.750
  -1071520.914 6   -822077.585 6  21684065.222    21684070.261          15.500
        15.000
   1450474.029 7   1130239.733 6  20380423.769    20380429.124          21.000
        21.000
   -485496.976 6   -378308.761 6  20555267.144    20555272.796          18.500
        19.750
   -709351.343 3   -546557.772 5  24008942.378    24008949.429           5.000
         6.750
  -2441672.865 6  -1902601.907 6  22431497.472    22431503.112          13.000
        15.000
 97 10  3  3 14 29.9990000  0  7G 2G 3G31G18G19G10G27
  -2849750.408 5  -2220582.737 5  23529648.487    23529654.749           8.750
         9.500
   1489962.878 5   1160369.910 5  23422692.362    23422697.870           8.500
         8.750
  -1080295.996 6   -828915.298 6  21682395.894    21682400.792          15.750
        15.000
   1474925.559 7   1149292.869 6  20385076.628    20385081.995          21.000
        21.000
   -489066.950 6   -381090.556 6  20554587.745    20554593.405          18.250
        19.500
   -723105.106 3   -557274.982 5  24006326.394    24006332.605           5.500
         6.750
  -2471773.642 6  -1926057.046 6  22425769.472    22425775.237          13.000
        15.000
 97 10  3  3 14 44.9990000  0  7G 2G 3G31G18G19G10G27
  -2885588.673 5  -2248508.632 5  23522828.690    23522834.886           9.000
         9.250
   1514861.252 5   1179771.227 5  23427430.401    23427435.886           8.500
         8.250
  -1088907.220 6   -835625.337 6  21680757.034    21680761.897          15.500
        15.000
   1499523.198 7   1168459.856 6  20389757.401    20389762.749          21.000
        21.000
   -492566.428 6   -383817.422 6  20553921.878    20553927.503          18.250
        19.500
   -736714.028 3   -567879.324 5  24003736.558    24003743.581           5.750
         7.250
  -2501835.813 6  -1949482.096 6  22420048.886    22420054.421          13.000
        14.750
 97 10  3  3 14 59.9990000  0  7G 2G 3G31G18G19G10G27
  -2921357.512 5  -2276380.420 5  23516021.855    23516028.073           8.750
         9.500
   1539897.623 5   1199280.089 5  23432195.128    23432200.620           8.250
         8.500
  -1097351.987 6   -842205.669 6  21679149.964    21679154.964          15.250
        15.000
   1524268.399 7   1187741.818 6  20394466.237    20394471.569          21.000
        21.000
   -495994.637 6   -386488.746 6  20553269.386    20553274.968          18.250
        19.750
   -750174.932 4   -578368.326 5  24001175.745    24001181.901           6.250
         7.500
  -2531857.579 6  -1972875.671 6  22414335.769    22414341.534          13.000
        14.750
 97 10  3  3 15 14.9990000  0  7G 2G 3G31G18G19G10G27
  -2957056.397 5  -2304197.712 5  23509228.878    23509234.956           9.000
         9.500
   1565070.489 5   1218895.324 5  23436984.855    23436990.210           8.250
         8.250
  -1105629.483 6   -848655.656 6  21677574.831    21677579.831          15.250
        15.000
   1549158.563 7   1207136.748 6  20399202.753    20399207.999          20.750
        21.000
   -499354.558 6   -389106.866 6  20552630.058    20552635.687          18.000
        19.500
   -763487.551 4   -588741.800 5  23998642.284    23998648.663           6.250
         7.250
  -2561840.934 6  -1996239.313 6  22408630.237    22408635.940          13.000
        15.000
 97 10  3  3 15 29.9990000  0  7G 2G 3G31G18G19G10G27
  -2992687.325 5  -2331962.064 5  23502448.261    23502454.284           8.750
         9.250
   1590377.709 5   1238615.237 5  23441800.972    23441806.128           8.500
         8.250
  -1113743.613 6   -854978.351 6  21676030.675    21676035.772          15.250
        15.250
   1574190.455 7   1226642.109 6  20403966.073    20403971.394          20.750
        21.000
   -502650.287 6   -391674.966 6  20552002.901    20552008.480          18.500
        19.750
   -776654.042 4   -599001.403 5  23996136.940    23996141.558           6.250
         6.750
  -2591786.817 6  -2019573.767 6  22402931.378    22402937.503          12.750
        15.000
 97 10  3  3 15 44.9990000  0  7G 2G 3G31G18G19G10G27
  -3028249.959 5  -2359673.180 5  23495680.894    23495687.140           8.750
         9.250
   1615818.211 5   1258439.004 5  23446641.855    23446647.710           8.500
         8.250
  -1121696.582 6   -861175.464 6  21674517.339    21674522.444          15.500
        15.250
   1599365.777 7   1246259.233 6  20408756.855    20408762.183          21.000
        21.000
   -505885.093 6   -394195.595 6  20551387.503    20551393.034          18.250
        19.750
   -789673.301 3   -609146.292 5  23993658.628    23993664.730           5.750
         6.750
  -2621696.109 6  -2042879.700 6  22397240.261    22397246.085          13.000
        15.000
 97 10  3  3 15 59.9990000  0  7G 2G 3G31G18G19G10G27
  -3063745.835 5  -2387332.282 5  23488926.269    23488932.519           8.750
         9.250
   1641393.611 5   1278367.889 5  23451508.972    23451514.671           8.500
         8.250
  -1129487.268 6   -867246.115 6  21673034.917    21673040.058          15.250
        15.000
   1624686.083 7   1265989.339 6  20413575.222    20413580.433          21.000
        21.000
   -509062.259 6   -396671.307 6  20550782.792    20550788.366          18.250
        19.750
   -802542.050 3   -619173.859 5  23991209.683    23991215.456           5.750
         6.500
  -2651569.837 6  -2066157.922 6  22391555.542    22391560.937          13.000
        15.000
 97 10  3  3 16 14.9990000  0  7G 2G 3G31G18G19G10G27
  -3099175.865 5  -2414940.077 5  23482183.870    23482190.405           8.750
         9.500
   1667106.911 5   1298404.236 5  23456401.823    23456407.433           8.500
         8.250
  -1137115.375 6   -873190.089 6  21671583.362    21671588.448          15.250
        15.250
   1650154.044 7   1285834.503 6  20418421.433    20418426.690          21.000
        21.250
   -512183.785 6   -399103.661 6  20550188.933    20550194.573          18.500
        19.750
   -815260.895 3   -629084.636 5  23988789.917    23988795.530           5.500
         6.500
  -2681408.199 6  -2089408.584 6  22385877.284    22385882.671          13.000
        14.750
 97 10  3  3 16 29.9990000  0  7G 2G 3G31G18G19G10G27
  -3134541.077 5  -2442497.364 5  23475454.081    23475460.589           8.750
         9.500
   1692956.128 5   1318546.488 5  23461321.050    23461326.417           8.500
         8.250
  -1144581.629 6   -879007.942 6  21670162.339    21670167.573          15.250
        15.250
   1675767.926 7   1305793.373 6  20423295.800    20423301.003          21.000
        21.250
   -515248.740 6   -401491.934 6  20549605.550    20549611.218          18.000
        19.750
   -827831.583 3   -638879.963 5  23986396.284    23986403.554           5.000
         6.500
  -2711213.739 6  -2112633.662 6  22380205.355    22380211.206          13.000
        14.750
 97 10  3  3 16 44.9990000  0  7G 2G 3G31G18G19G10G27
  -3169843.543 5  -2470005.751 5  23468736.144    23468742.605           9.000
         9.500
   1718937.889 5   1338792.009 5  23466264.659    23466270.874           8.250
         8.250
  -1151886.017 6   -884699.661 6  21668772.159    21668777.355          15.250
        15.250
   1701523.061 7   1325862.309 6  20428196.855    20428202.151          21.000
        21.250
   -518259.257 6   -403837.790 6  20549032.636    20549038.226          18.500
        19.750
   -840262.719 3   -648566.549 5  23984030.776    23984037.499           5.000
         6.500
  -2740992.435 6  -2135837.834 6  22374538.737    22374544.394          13.000
        14.750
 97 10  3  3 16 59.9990000  0  7G 2G 3G31G18G19G10G27
  -3205081.649 5  -2497463.999 5  23462030.737    23462037.261           9.000
         9.500
   1745053.974 5   1359142.212 5  23471234.940    23471239.878           8.500
         8.000
  -1159027.988 6   -890264.835 6  21667413.253    21667418.288          15.250
        15.250
   1727416.230 7   1346038.796 6  20433124.073    20433129.456          21.000
        21.250
   -521218.782 6   -406143.911 6  20548469.534    20548475.058          18.250
        19.750
   -852557.445 3   -658146.829 5  23981691.362    23981698.167           5.250
         6.750
  -2770745.961 6  -2159022.390 6  22368877.073    22368882.437          13.250
        14.750
 97 10  3  3 17 14.9990000  0  7G 2G 3G31G18G19G10G27
  -3240251.883 5  -2524869.352 5  23455338.315    23455344.476           9.000
         9.500
   1771306.381 5   1379598.641 5  23476230.315    23476235.944           8.250
         8.000
  -1166005.913 6   -895702.168 6  21666085.331    21666090.433          15.250
        15.250
   1753445.918 7   1366321.675 6  20438077.534    20438082.706          21.000
        21.000
   -524127.312 6   -408410.292 6  20547916.050    20547921.659          18.000
        19.750
   -864712.442 3   -667618.257 5  23979378.550    23979385.808           5.250
         6.750
  -2800475.457 6  -2182188.217 6  22363219.472    22363225.132          13.000
        15.000
 97 10  3  3 17 29.9990000  0  7G 2G 3G31G18G19G10G27
  -3275353.333 5  -2552221.109 5  23448658.519    23448664.776           9.000
         9.750
   1797696.607 5   1400162.458 5  23481252.245    23481258.007           8.250
         8.000
  -1172822.313 6   -901013.644 6  21664788.292    21664793.327          15.250
        15.250
   1779612.723 7   1386711.387 6  20443056.722    20443061.995          20.750
        21.000
   -526982.984 6   -410635.492 6  20547372.628    20547378.249          18.500
        19.750
   -876730.523 3   -676982.983 5  23977091.675    23977098.882           5.250
         7.000
  -2830182.411 6  -2205336.482 6  22357566.230    22357572.062          13.250
        15.000
 97 10  3  3 17 44.9990000  0  7G 2G 3G31G18G19G10G27
  -3310384.307 5  -2579517.966 5  23441992.136    23441998.444           9.000
         9.750
   1824226.461 5   1420835.061 5  23486300.917    23486306.159           8.500
         8.000
  -1179479.435 6   -906201.010 6  21663521.417    21663526.507          15.250
        15.250
   1805918.452 7   1407209.350 6  20448062.573    20448067.792          20.750
        21.000
   -529782.617 6   -412817.023 6  20546839.737    20546845.362          18.000
        19.750
   -888610.151 3   -686239.828 5  23974831.019    23974837.976           5.000
         6.750
  -2859867.315 6  -2228467.571 6  22351917.737    22351923.155          13.250
        14.750
 97 10  3  3 17 59.9990000  0  7G 2G 3G31G18G19G10G27
  -3345344.486 5  -2606759.640 5  23435339.456    23435346.101           9.000
         9.750
   1850895.242 5   1441615.927 5  23491375.597    23491380.921           8.250
         7.750
  -1185974.489 6   -911262.090 6  21662285.401    21662290.624          15.250
        15.250
   1832362.693 7   1427815.247 6  20453094.776    20453099.999          20.750
        21.000
   -532523.445 6   -414952.733 6  20546318.214    20546323.745          18.500
        20.000
   -900352.268 3   -695389.517 5  23972597.480    23972603.069           5.500
         6.750
  -2889531.509 6  -2251582.525 6  22346272.503    22346278.175          13.250
        15.000
 97 10  3  3 18 14.9990000  0  7G 2G 3G31G18G19G10G27
  -3380231.141 5  -2633944.029 5  23428700.612    23428707.046           9.000
         9.750
   1877703.997 5   1462505.865 5  23496477.159    23496482.351           8.250
         7.750
  -1192306.119 6   -916195.824 6  21661080.581    21661085.687          15.250
        15.250
   1858941.957 7   1448526.351 6  20458152.644    20458157.870          20.500
        21.000
   -535199.583 6   -417038.030 6  20545809.183    20545814.780          18.250
        19.750
   -911957.734 3   -704432.719 5  23970388.362    23970394.577           5.250
         6.750
  -2919171.780 6  -2274678.821 6  22340632.159    22340637.675          13.250
        15.000
 97 10  3  3 18 29.9990000  0  7G 2G 3G31G18G19G10G27
  -3415041.822 5  -2661069.224 5  23422076.714    23422083.116           9.000
         9.500
   1904655.973 5   1483507.417 5  23501605.886    23501611.780           8.250
         8.000
  -1198474.952 6   -921002.697 6  21659906.839    21659911.882          15.250
        15.250
   1885656.140 7   1469342.591 6  20463236.151    20463241.530          20.500
        21.000
   -537804.529 6   -419067.860 6  20545313.440    20545318.921          18.250
        19.750
   -923427.029 3   -713369.823 5  23968204.933    23968212.276           5.000
         6.500
  -2948782.679 6  -2297752.240 6  22334997.534    22335003.019          13.500
        15.000
 97 10  3  3 18 44.9990000  0  7G 2G 3G31G18G19G10G27
  -3449782.150 5  -2688139.582 5  23415465.409    23415471.925           9.000
         9.750
   1931746.343 5   1504616.794 5  23506761.136    23506766.487           8.250
         7.750
  -1204488.505 6   -925688.579 6  21658762.605    21658767.558          15.250
        15.250
   1912496.057 7   1490256.800 6  20468343.573    20468349.011          20.500
        21.250
   -540341.473 6   -421044.698 6  20544830.480    20544836.062          18.500
        20.000
   -934765.324 3   -722204.835 5  23966047.409    23966054.562           5.000
         6.500
  -2978370.420 6  -2320807.615 6  22329367.261    22329372.554          13.500
        15.000
 97 10  3  3 18 59.9990000  0  7G 2G 3G31G18G19G10G27
  -3484451.087 5  -2715154.327 5  23408868.440    23408874.733           9.000
         9.750
   1958975.990 5   1525834.699 5  23511942.425    23511948.534           8.000
         8.000
  -1210346.663 6   -930253.375 6  21657647.698    21657652.835          15.250
        15.250
   1939461.761 7   1511269.034 6  20473474.917    20473480.308          20.500
        21.250
   -542810.169 6   -422968.359 6  20544360.831    20544366.390          18.250
        19.750
   -945967.906 3   -730934.127 5  23963916.737    23963922.347           5.000
         6.750
  -3007933.490 6  -2343843.767 6  22323741.550    22323746.784          13.500
        15.000
 97 10  3  3 19 14.9990000  0  7G 2G 3G31G18G19G10G27
  -3519047.568 5  -2742112.604 5  23402284.855    23402291.167           9.250
         9.750
   1986343.853 5   1547160.315 5  23517150.722    23517156.128           8.250
         8.000
  -1216051.872 6   -934698.984 6  21656562.198    21656567.128          15.250
        15.250
   1966554.077 7   1532379.922 6  20478630.605    20478635.929          20.500
        21.250
   -545210.356 6   -424838.633 6  20543904.151    20543909.819          18.750
        20.000
   -957030.490 3   -739554.305 5  23961811.542    23961817.765           5.500
         7.000
  -3037472.553 6  -2366861.214 6  22318120.355    22318126.038          13.500
        15.000
 97 10  3  3 19 29.9990000  0  7G 2G 3G31G18G19G10G27
  -3553568.062 5  -2769011.675 5  23395716.019    23395722.230           9.250
         9.750
   2013852.164 5   1568595.355 5  23522384.870    23522391.233           8.000
         7.750
  -1221599.605 6   -939021.885 6  21655506.394    21655511.429          15.250
        15.250
   1993777.489 7   1553592.969 6  20483810.964    20483816.276          20.500
        21.250
   -547537.005 6   -426651.603 6  20543461.401    20543466.976          18.500
        19.750
   -967951.039 3   -748063.816 5  23959733.190    23959740.401           5.750
         7.250
  -3066984.592 6  -2389857.599 6  22312504.378    22312510.097          13.500
        15.250
 97 10  3  3 19 44.9990000  0  7G 2G 3G31G18G19G10G27
  -3588018.792 5  -2795856.386 5  23389160.058    23389166.300           9.250
         9.750
   2041497.343 5   1590137.058 5  23527646.269    23527651.733           8.250
         7.750
  -1226990.972 6   -943222.946 6  21654480.261    21654485.362          15.250
        15.500
   2021130.784 7   1574907.210 6  20489016.159    20489021.499          20.500
        21.250
   -549794.749 6   -428410.881 6  20543031.808    20543037.315          18.250
        20.000
   -978735.439 3   -756467.252 5  23957681.831    23957687.624           6.000
         7.500
  -3096469.784 6  -2412833.061 6  22306893.261    22306898.983          13.250
        15.250
 97 10  3  3 19 59.9990000  0  7G 2G 3G31G18G19G10G27
  -3622399.985 5  -2822646.916 5  23382617.401    23382623.894           9.250
         9.750
   2069278.774 5   1611784.933 5  23532932.448    23532937.933           8.250
         7.750
  -1232219.431 6   -947297.069 6  21653485.245    21653490.358          15.250
        15.250
   2048617.530 7   1596325.446 6  20494246.776    20494251.999          20.500
        21.000
   -551983.112 6   -430116.099 6  20542615.284    20542620.757          18.750
        20.000
   -989379.400 4   -764761.242 5  23955656.620    23955662.136           6.250
         7.250
  -3125923.434 6  -2435783.954 6  22301288.698    22301294.210          13.250
        15.250
 97 10  3  3 20 14.9990000  0  7G 2G 3G31G18G19G10G27
  -3656712.517 5  -2849383.938 5  23376088.065    23376094.265           9.250
         9.750
   2097193.799 5   1633536.908 5  23538244.745    23538250.187           8.000
         7.750
  -1237284.984 6   -951244.245 6  21652521.448    21652526.519          15.250
        15.500
   2076237.305 7   1617847.349 6  20499502.323    20499507.644          20.500
        21.000
   -554103.209 6   -431768.119 6  20542211.917    20542217.476          18.500
        20.000
   -999881.170 4   -772944.434 5  23953658.230    23953663.808           6.250
         7.250
  -3155345.611 6  -2458710.315 6  22295690.026    22295695.507          13.500
        15.250
 97 10  3  3 20 29.9990000  0  7G 2G 3G31G18G19G10G27
  -3690956.083 5  -2876067.212 5  23369571.792    23369578.147           9.250
        10.000
   2125242.228 5   1655392.814 5  23543582.011    23543587.476           8.000
         7.750
  -1242188.505 6   -955065.164 6  21651588.276    21651593.409          15.250
        15.500
   2103992.878 7   1639475.058 6  20504784.237    20504789.562          20.750
        21.000
   -556157.661 6   -433368.990 6  20541821.026    20541826.526          18.500
        19.750
  -1010238.083 3   -781014.748 5  23951686.948    23951693.280           6.000
         7.250
  -3184736.879 6  -2481612.600 6  22290096.870    22290102.480          13.500
        15.500
 97 10  3  3 20 44.9990000  0  7G 2G 3G31G18G19G10G27
  -3725129.467 5  -2902695.810 5  23363068.808    23363074.913           9.250
        10.000
   2153423.063 5   1677351.912 5  23548944.925    23548950.288           8.000
         7.750
  -1246926.255 6   -958756.915 6  21650686.651    21650691.745          15.000
        15.250
   2131889.133 7   1661212.408 6  20510092.714    20510098.050          20.500
        21.250
   -558147.457 6   -434919.482 6  20541442.167    20541447.769          18.500
        20.000
  -1020447.128 3   -788969.833 5  23949743.808    23949750.589           5.750
         7.500
  -3214099.325 6  -2504492.418 6  22284509.370    22284514.976          13.500
        15.500
 97 10  3  3 20 59.9990000  0  7G 2G 3G31G18G19G10G27
  -3759229.165 5  -2929266.995 5  23356579.925    23356585.858           9.250
         9.750
   2181736.336 5   1699414.216 5  23554332.300    23554338.312           8.000
         7.750
  -1251494.687 6   -962316.716 6  21649817.284    21649822.425          15.250
        15.250
   2159929.564 7   1683062.096 6  20515428.706    20515434.073          20.500
        21.250
   -560072.860 6   -436419.796 6  20541075.894    20541081.440          18.500
        19.750
  -1030504.196 3   -796806.490 5  23947829.948    23947836.175           5.750
         7.250
  -3243433.905 6  -2527350.518 6  22278927.183    22278932.815          13.750
        15.500
 97 10  3  3 21 14.9990000  0  7G 2G 3G31G18G19G10G27
  -3793264.435 5  -2955787.966 5  23350103.112    23350109.421           9.500
        10.000
   2210172.985 5   1721572.641 5  23559744.230    23559749.522           8.000
         7.750
  -1255900.421 6   -965749.749 6  21648978.956    21648983.983          15.250
        15.250
   2188109.115 7   1705020.198 6  20520791.151    20520796.421          20.500
        21.250
   -561942.180 6   -437876.408 6  20540720.073    20540725.690          18.750
        20.000
  -1040417.779 3   -804531.358 5  23945943.714    23945949.726           5.750
         7.500
  -3272747.135 6  -2550191.988 6  22273349.175    22273354.698          13.750
        15.750
 97 10  3  3 21 29.9990000  0  7G 2G 3G31G18G19G10G27
  -3827236.930 5  -2982260.026 5  23343638.206    23343644.429           9.500
        10.000
   2238734.372 5   1743828.259 5  23565178.901    23565185.187           8.000
         8.000
  -1260144.292 6   -969056.661 6  21648171.300    21648176.296          15.250
        15.250
   2216426.314 7   1727085.547 6  20526179.659    20526184.976          20.500
        21.250
   -563757.684 6   -439291.083 6  20540374.573    20540380.085          18.500
        19.750
  -1050192.764 3   -812148.219 5  23944083.253    23944090.120           5.750
         7.500
  -3302038.788 6  -2573016.643 6  22267775.190    22267780.690          14.000
        15.750
 97 10  3  3 21 44.9990000  0  7G 2G 3G31G18G19G10G27
  -3861147.771 5  -3008684.040 5  23337185.503    23337191.483           9.500
        10.000
   2267422.419 5   1766182.582 5  23570638.190    23570643.605           8.000
         7.750
  -1264225.765 6   -972237.024 6  21647394.800    21647399.757          15.250
        15.250
   2244881.980 7   1749258.790 6  20531594.620    20531599.855          20.500
        21.250
   -565518.040 6   -440662.789 6  20540039.722    20540045.249          18.500
        19.750
  -1059827.413 3   -819655.732 5  23942250.222    23942257.401           6.000
         8.000
  -3331303.869 6  -2595820.597 6  22262206.261    22262211.831          14.000
        15.500
 97 10  3  3 21 59.9990000  0  7G 2G 3G31G18G19G10G27
  -3894995.872 5  -3035059.176 5  23330744.050    23330750.312           9.500
        10.000
   2296234.555 5   1788633.607 5  23576120.948    23576126.237           8.000
         7.500
  -1268144.614 6   -975290.668 6  21646648.917    21646654.058          15.250
        15.500
   2273475.546 7   1771539.490 6  20537035.690    20537041.022          20.250
        21.500
   -567222.541 6   -441990.973 6  20539715.323    20539720.812          18.500
        19.750
  -1069315.016 3   -827048.664 5  23940444.667    23940451.554           6.000
         7.750
  -3360542.038 6  -2618603.583 6  22256642.511    22256647.612          14.250
        15.500
 97 10  3  3 22 14.9990000  0  7G 2G 3G31G18G19G10G27
  -3928774.963 5  -3061380.537 5  23324316.159    23324322.327           9.500
        10.000
   2325173.164 5   1811183.165 5  23581627.636    23581633.749           8.000
         7.750
  -1271898.569 6   -978215.827 6  21645934.573    21645939.772          15.250
        15.500
   2302206.463 7   1793927.206 6  20542502.948    20542508.312          20.250
        21.250
   -568867.293 6   -443272.602 6  20539402.284    20539407.800          18.500
        19.750
  -1078649.682 3   -834322.402 5  23938668.386    23938674.671           6.000
         7.250
  -3389751.531 6  -2641364.224 6  22251083.870    22251089.304          14.250
        15.750
 97 10  3  3 22 29.9990000  0  7G 2G 3G31G18G19G10G27
  -3962486.922 5  -3087649.578 5  23317900.956    23317907.081           9.500
        10.000
   2354239.359 5   1833832.149 5  23587158.730    23587164.335           8.000
         7.750
  -1275493.012 6   -981016.683 6  21645250.675    21645255.878          15.250
        15.500
   2331069.316 7   1816417.729 6  20547995.214    20548000.565          20.250
        21.250
   -570454.881 6   -444509.679 6  20539100.253    20539105.718          18.750
        19.750
  -1087837.683 3   -841481.878 5  23936919.815    23936926.120           6.000
         7.250
  -3418936.754 6  -2664105.940 6  22245530.011    22245535.702          14.250
        15.750
 97 10  3  3 22 44.9990000  0  7G 2G 3G31G18G19G10G27
  -3996140.074 5  -3113872.802 5  23311497.105    23311503.038           9.250
        10.000
   2383428.305 5   1856576.788 5  23592713.261    23592718.702           8.000
         7.500
  -1278936.080 6   -983699.591 6  21644595.659    21644600.706          15.250
        15.750
   2360055.245 7   1839004.165 6  20553511.355    20553516.640          20.500
        21.750
   -571991.381 6   -445706.953 6  20538807.823    20538813.343          18.750
        19.750
  -1096891.446 3   -848536.752 5  23935196.815    23935202.897           5.750
         6.750
  -3448102.361 6  -2686832.382 6  22239980.315    22239985.554          14.250
        15.750
 97 10  3  3 22 59.9990000  0  7G 2G 3G31G18G19G10G27
  -4029727.999 5  -3140045.180 5  23305105.253    23305111.632           9.250
        10.000
   2412749.233 5   1879424.269 5  23598292.894    23598297.858           8.000
         7.500
  -1282219.500 6   -986258.086 6  21643970.776    21643975.878          15.000
        15.250
   2389168.873 7   1861690.108 6  20559051.487    20559056.847          20.250
        21.500
   -573467.531 6   -446857.197 6  20538526.909    20538532.483          18.500
        19.750
  -1105804.697 3   -855482.140 5  23933500.761    23933506.308           5.750
         6.750
  -3477239.355 6  -2709536.529 6  22234435.644    22234440.866          14.500
        15.500
 97 10  3  3 23 14.9990000  0  7G 2G 3G31G18G19G10G27
  -4063248.413 5  -3166164.978 5  23298726.612    23298732.940           9.250
        10.250
   2442207.281 5   1902378.602 5  23603898.448    23603904.519           8.000
         7.750
  -1285339.325 6   -988689.122 6  21643377.128    21643382.167          15.250
        15.500
   2418414.306 7   1884478.751 6  20564616.503    20564621.855          20.250
        21.500
   -574877.939 6   -447956.219 6  20538258.573    20538264.062          18.750
        19.750
  -1114575.735 3   -862316.707 5  23931831.597    23931837.690           5.750
         7.000
  -3506342.250 6  -2732214.100 6  22228897.308    22228902.761          14.250
        15.500
 97 10  3  3 23 29.9990000  0  7G 2G 3G31G18G19G10G27
  -4096704.957 5  -3192234.999 5  23292360.097    23292366.519           9.250
        10.250
   2471799.909 5   1925437.785 5  23609529.956    23609535.409           8.250
         7.750
  -1288298.729 6   -990995.148 6  21642813.909    21642818.917          15.000
        15.500
   2447785.973 7   1907365.758 6  20570205.933    20570211.233          20.250
        21.500
   -576226.928 6   -449007.370 6  20538001.745    20538007.237          18.750
        19.750
  -1123210.951 3   -869045.444 5  23930188.347    23930194.405           5.750
         7.250
  -3535414.759 6  -2754867.990 6  22223365.081    22223370.480          14.250
        15.500
 97 10  3  3 23 44.9990000  0  7G 2G 3G31G18G19G10G27
  -4130098.255 5  -3218255.735 5  23286005.456    23286012.003           9.250
        10.250
   2501525.388 5   1948600.506 5  23615186.526    23615191.515           8.250
         7.500
  -1291097.871 6   -993176.286 6  21642281.065    21642286.370          15.000
        15.750
   2477283.077 7   1930350.502 6  20575819.034    20575824.413          20.250
        21.500
   -577515.912 6   -450011.775 6  20537756.433    20537761.972          19.250
        19.750
  -1131709.405 3   -875667.609 5  23928571.276    23928576.944           6.000
         7.250
  -3564459.197 6  -2777500.015 6  22217838.136    22217843.382          14.250
        15.500
 97 10  3  3 23 59.9990000  0  7G 2G 3G31G18G19G10G27
  -4163429.376 5  -3244228.007 5  23279662.745    23279669.081           9.250
        10.250
   2531380.975 5   1971864.600 5  23620867.925    23620873.452           8.250
         7.750
  -1293736.487 6   -995232.342 6  21641778.972    21641784.128          15.000
        15.750
   2506908.527 7   1953435.275 6  20581456.495    20581461.921          20.000
        21.500
   -578743.379 6   -450968.240 6  20537522.987    20537528.370          18.750
        19.500
  -1140069.713 3   -882182.116 5  23926980.183    23926986.562           6.000
         7.500
  -3593476.499 6  -2800110.891 6  22212316.355    22212321.569          14.250
        15.500
 97 10  3  3 24 14.9990000  0  7G 2G 3G31G18G19G10G27
  -4196693.228 5  -3270147.889 5  23273332.972    23273339.413           9.500
        10.500
   2561369.169 5   1995232.035 5  23626574.222    23626580.007           8.250
         7.750
  -1296212.131 6   -997161.419 6  21641307.776    21641313.054          15.000
        15.750
   2536663.239 7   1976620.759 6  20587118.753    20587124.101          20.250
        21.500
   -579908.929 6   -451876.463 6  20537301.237    20537306.730          19.000
        19.500
  -1148294.330 3   -888590.910 5  23925415.245    23925422.105           6.000
         7.750
  -3622467.033 6  -2822700.909 6  22206799.355    22206804.843          14.000
        15.500
 97 10  3  3 24 29.9990000  0  7G 2G 3G31G18G19G10G27
  -4229892.447 5  -3296017.392 5  23267015.222    23267021.640           9.500
        10.500
   2591492.821 5   2018704.998 5  23632306.987    23632312.468           8.250
         7.500
  -1298526.761 6   -998965.021 6  21640867.331    21640872.538          15.000
        15.750
   2566548.057 7   1999907.631 6  20592805.667    20592810.987          20.250
        21.500
   -581012.585 6   -452736.449 6  20537091.222    20537096.749          19.250
        19.500
  -1156388.674 3   -894898.164 5  23923874.628    23923881.569           6.000
         7.500
  -3651431.644 6  -2845270.727 6  22201287.683    22201293.144          14.250
        15.750
 97 10  3  3 24 44.9990000  0  7G 2G 3G31G18G19G10G27
  -4263024.795 5  -3321834.790 5  23260710.464    23260716.522           9.500
        10.500
   2621755.443 5   2042286.273 5  23638065.042    23638070.569           8.250
         7.250
  -1300677.573 6  -1000640.969 6  21640458.198    21640463.151          15.000
        15.500
   2596569.462 7   2023300.922 6  20598518.573    20598523.901          20.000
        21.500
   -582050.356 6   -453545.100 6  20536893.698    20536899.108          18.750
        19.500
  -1164348.590 3   -901100.695 5  23922359.940    23922366.214           6.000
         7.250
  -3680366.692 6  -2867817.504 6  22195781.761    22195787.159          14.000
        15.750
 97 10  3  3 24 59.9990000  0  7G 2G 3G31G18G19G10G27
  -4296090.250 5  -3347600.067 5  23254418.480    23254424.507           9.750
        10.500
   2652152.039 5   2065971.926 5  23643849.862    23643854.726           8.250
         7.500
  -1302663.029 6  -1002188.077 6  21640080.253    21640085.284          15.000
        15.500
   2626727.681 7   2046800.824 6  20604257.245    20604262.526          20.250
        21.750
   -583024.552 6   -454304.213 6  20536708.300    20536713.694          19.250
        19.500
  -1172170.348 3   -907195.557 5  23920871.659    23920877.581           6.000
         7.250
  -3709274.359 6  -2890342.947 6  22190280.737    22190285.983          14.000
        15.750
 97 10  3  3 25 14.9990000  0  7G 2G 3G31G18G19G10G27
  -4329089.866 5  -3373314.041 5  23248138.667    23248144.882           9.750
        10.500
   2682677.059 5   2089757.651 5  23649658.776    23649664.612           8.500
         7.500
  -1304484.894 6  -1003607.706 6  21639733.519    21639738.714          15.000
        15.750
   2657023.141 7   2070407.675 6  20610022.409    20610027.694          20.250
        21.750
   -583938.915 6   -455016.703 6  20536534.276    20536539.687          18.750
        19.500
  -1179852.474 4   -913181.632 5  23919410.534    23919416.405           6.500
         7.250
  -3738159.441 6  -2912850.800 6  22184783.964    22184789.226          14.000
        15.750
 97 10  3  3 25 29.9990000  0  7G 2G 3G31G18G19G10G27
  -4362023.150 5  -3398976.323 5  23241871.480    23241877.823           9.750
        10.750
   2713328.885 5   2113642.189 5  23655491.370    23655496.526           8.250
         7.500
  -1306145.697 6  -1004901.834 6  21639417.433    21639422.593          15.000
        15.750
   2687455.775 7   2094121.410 6  20615813.526    20615818.905          20.250
        21.500
   -584796.270 6   -455684.771 6  20536371.183    20536376.706          18.750
        19.500
  -1187395.309 4   -919059.165 5  23917974.933    23917980.905           6.500
         7.250
  -3767023.247 6  -2935342.069 6  22179291.144    22179296.706          14.000
        16.000
 97 10  3  3 25 44.9990000  0  7G 2G 3G31G18G19G10G27
  -4394888.317 5  -3424585.529 5  23235617.737    23235623.937           9.750
        10.750
   2744108.622 5   2137626.411 5  23661348.519    23661353.944           8.250
         7.500
  -1307644.852 6  -1006070.004 6  21639132.183    21639137.382          15.000
        15.750
   2718027.714 7   2117943.692 6  20621631.167    20621636.565          20.250
        21.500
   -585596.706 6   -456308.492 6  20536218.667    20536224.226          19.250
        19.500
  -1194794.457 4   -924824.729 5  23916566.565    23916572.690           6.250
         7.250
  -3795862.198 6  -2957813.969 6  22173803.425    22173809.003          14.000
        15.750
 97 10  3  3 25 59.9990000  0  7G 2G 3G31G18G19G10G27
  -4427685.530 5  -3450141.786 5  23229376.730    23229382.980           9.750
        11.000
   2775014.740 5   2161709.111 5  23667229.972    23667235.171           8.250
         7.500
  -1308985.831 6  -1007114.920 6  21638877.011    21638882.101          15.000
        15.750
   2748739.587 7   2141875.023 6  20627475.456    20627480.733          20.250
        21.500
   -586341.942 6   -456889.199 6  20536077.050    20536082.616          18.750
        19.750
  -1202050.209 4   -930478.556 5  23915186.050    23915191.210           6.250
         6.750
  -3824675.088 6  -2980265.566 6  22168320.456    22168326.026          14.000
        16.000
 97 10  3  3 26 14.9990000  0  7G 2G 3G31G18G19G10G27
  -4460407.716 5  -3475639.574 5  23223149.636    23223156.124          10.000
        10.750
   2806049.748 5   2185892.238 5  23673135.355    23673141.429           7.750
         7.750
  -1310166.791 6  -1008035.142 6  21638652.237    21638657.401          15.000
        15.750
   2779588.932 7   2165913.462 6  20633346.050    20633351.409          20.000
        21.500
   -587028.306 6   -457424.023 6  20535946.448    20535951.929          18.750
        19.750
  -1209160.239 4   -936018.833 5  23913832.987    23913838.546           6.250
         6.750
  -3853458.964 6  -3002694.547 6  22162843.026    22162848.562          14.000
        16.000
 97 10  3  3 26 29.9990000  0  7G 2G 3G31G18G19G10G27
  -4493055.253 5  -3501079.206 5  23216936.948    23216943.351           9.750
        10.750
   2837213.631 5   2210175.774 5  23679066.003    23679071.542           8.000
         7.500
  -1311187.346 6  -1008830.380 6  21638458.128    21638463.339          15.000
        15.750
   2810573.100 7   2190056.966 6  20639242.058    20639247.425          20.000
        21.500
   -587655.990 6   -457913.126 6  20535826.855    20535832.374          18.500
        19.750
  -1216125.290 4   -941446.130 5  23912507.847    23912513.108           6.500
         7.000
  -3882214.530 6  -3025101.469 6  22157371.190    22157376.776          14.500
        16.250
 97 10  3  3 26 44.9990000  0  7G 2G 3G31G18G19G10G27
  -4525629.081 5  -3526461.396 5  23210738.401    23210744.632           9.750
        10.750
   2868504.960 5   2234558.634 5  23685020.597    23685025.659           8.250
         7.500
  -1312046.313 6  -1009499.701 6  21638294.847    21638299.804          15.250
        15.750
   2841693.476 7   2214306.591 6  20645164.042    20645169.444          20.000
        21.500
   -588220.820 6   -458353.254 6  20535719.425    20535725.022          18.750
        19.750
  -1222942.204 4   -946758.013 5  23911210.315    23911216.210           6.250
         7.000
  -3910938.904 6  -3047484.095 6  22151905.151    22151910.464          14.250
        16.000
 97 10  3  3 26 59.9990000  0  7G 2G 3G31G18G19G10G27
  -4558129.004 5  -3551785.992 5  23204553.675    23204560.030          10.000
        11.000
   2899920.035 5   2259037.917 5  23690997.964    23691004.323           7.750
         7.500
  -1312743.586 6  -1010043.024 6  21638161.862    21638167.034          15.000
        15.750
   2872948.925 6   2238661.476 6  20651111.628    20651117.081          19.750
        21.500
   -588723.668 6   -458745.082 6  20535623.628    20535629.245          19.250
        19.750
  -1229612.703 4   -951955.785 5  23909941.042    23909947.276           6.250
         7.250
  -3939633.650 6  -3069843.632 6  22146444.620    22146449.972          14.000
        16.000
 97 10  3  3 27 14.9990000  0  7G 2G 3G31G18G19G10G27
  -4590555.879 5  -3577053.685 5  23198383.237    23198389.308          10.000
        11.000
   2931457.546 5   2283612.596 5  23696999.839    23697005.386           7.750
         7.750
  -1313281.575 6  -1010462.234 6  21638059.417    21638064.675          15.000
        15.750
   2904335.661 6   2263118.661 6  20657084.339    20657089.851          19.750
        21.500
   -589163.257 6   -459087.622 6  20535539.948    20535545.522          18.500
        19.500
  -1236141.240 4   -957042.958 5  23908698.933    23908704.358           6.250
         7.250
  -3968299.050 6  -3092180.291 6  22140989.597    22140995.331          14.000
        16.250
 97 10  3  3 27 29.9990000  0  7G 2G 3G31G18G19G10G27
  -4622909.629 5  -3602264.373 5  23192226.394    23192232.468           9.750
        11.000
   2963120.078 5   2308284.695 5  23703025.042    23703030.667           8.000
         7.500
  -1313660.325 6  -1010757.356 6  21637987.261    21637992.601          14.750
        15.750
   2935854.736 6   2287678.977 6  20663082.386    20663087.772          19.750
        21.500
   -589536.577 6   -459378.521 6  20535469.050    20535474.597          18.500
        19.500
  -1242531.116 4   -962022.079 5  23907482.737    23907488.710           6.250
         7.250
  -3996931.893 6  -3114491.585 6  22135540.948    22135546.655          14.250
        16.250
 97 10  3  3 27 44.9990000  0  7G 2G 3G31G18G19G10G27
  -4655191.703 5  -3627419.227 5  23186083.417    23186089.776           9.750
        11.000
   2994906.444 5   2333053.300 5  23709073.378    23709078.980           7.750
         7.250
  -1313881.397 6  -1010929.618 6  21637945.331    21637950.472          15.000
        15.750
   2967501.516 6   2312338.804 6  20669104.472    20669109.897          19.750
        21.500
   -589845.521 6   -459619.256 6  20535410.261    20535415.866          18.750
        19.750
  -1248787.553 4   -966897.212 5  23906292.097    23906298.495           6.250
         7.500
  -4025533.544 6  -3136778.575 6  22130098.565    22130103.788          14.250
        16.000
 97 10  3  3 27 59.9990000  0  7G 2G 3G31G18G19G10G27
  -4687398.972 5  -3652515.786 5  23179954.620    23179960.772           9.750
        10.750
   3026816.994 5   2357918.676 5  23715146.112    23715151.476           7.750
         7.250
  -1313941.368 6  -1010976.348 6  21637933.862    21637938.964          14.750
        15.500
   2999275.885 6   2337098.054 6  20675150.894    20675156.206          19.750
        21.250
   -590086.059 6   -459806.693 6  20535364.472    20535369.925          18.500
        19.750
  -1254908.311 4   -971666.637 5  23905127.620    23905133.960           6.500
         7.500
  -4054103.211 6  -3159040.652 6  22124661.589    22124667.097          14.250
        16.500
 97 10  3  3 28 14.9990000  0  7G 2G 3G31G18G19G10G27
  -4719529.890 5  -3677552.859 5  23173840.323    23173846.386          10.000
        11.000
   3058852.145 5   2382881.121 5  23721242.230    23721247.952           7.750
         7.500
  -1313837.357 6  -1010895.295 6  21637953.940    21637958.862          15.000
        15.750
   3031174.526 6   2361954.136 6  20681221.034    20681226.343          19.750
        21.250
   -590255.571 6   -459938.780 6  20535332.245    20535337.765          18.750
        19.500
  -1260893.943 4   -976330.770 5  23903989.112    23903995.233           6.750
         7.750
  -4082641.296 6  -3181278.115 6  22119231.042    22119236.562          14.500
        16.500
 97 10  3  3 28 29.9990000  0  7G 2G 3G31G18G19G10G27
  -4751592.190 5  -3702536.449 5  23167739.042    23167745.312           9.750
        11.000
   3091008.455 5   2407937.978 5  23727360.972    23727367.011           7.750
         7.500
  -1313569.074 6  -1010686.245 6  21638004.675    21638009.831          15.000
        15.750
   3063193.410 6   2386903.914 6  20687314.128    20687319.460          19.500
        21.500
   -590355.654 6   -460016.774 6  20535313.073    20535318.671          18.500
        19.500
  -1266748.258 4   -980892.593 5  23902874.519    23902881.116           6.500
         8.000
  -4111154.144 6  -3203495.905 6  22113805.261    22113810.753          14.500
        16.500
 97 10  3  3 28 44.9990000  0  7G 2G 3G31G18G19G10G27
  -4783592.714 5  -3727471.910 5  23161649.558    23161655.737          10.000
        11.250
   3123285.643 5   2433089.045 5  23733503.433    23733508.745           7.750
         7.500
  -1313140.004 6  -1010351.899 6  21638086.542    21638091.519          15.000
        15.500
   3095332.910 6   2411947.677 6  20693430.034    20693435.491          19.500
        21.250
   -590389.315 6   -460043.000 6  20535306.683    20535312.272          18.500
        19.500
  -1272473.871 4   -985354.101 5  23901784.159    23901791.437           6.250
         8.000
  -4139643.843 6  -3225695.670 6  22108384.042    22108389.358          14.500
        16.250
 97 10  3  3 29  0.0000000  0  7G 2G 3G31G18G19G10G27
  -4815530.147 5  -3752358.209 5  23155571.945    23155578.227           9.750
        11.000
   3155688.762 5   2458338.237 5  23739669.234    23739675.184           7.500
         7.250
  -1312548.835 6  -1009891.243 6  21638199.188    21638204.188          15.000
        15.500
   3127598.032 6   2437089.329 6  20699569.742    20699575.195          19.500
        21.250
   -590355.614 6   -460016.740 6  20535313.102    20535318.684          18.750
        19.500
  -1278067.028 4   -989712.381 5  23900720.484    23900726.848           6.250
         7.750
  -4168112.448 6  -3247878.986 6  22102966.320    22102971.832          14.250
        16.250
 97 10  3  3 29 15.0000000  0  7G 2G 3G31G18G19G10G27
  -4847398.108 5  -3777190.373 5  23149507.477    23149513.875           9.750
        11.000
   3188215.590 5   2483683.807 5  23745859.031    23745864.789           7.750
         7.500
  -1311793.452 6  -1009302.629 6  21638342.766    21638347.906          15.250
        15.750
   3159984.245 6   2462325.329 6  20705732.750    20705738.145          19.500
        21.250
   -590257.145 6   -459940.009 6  20535331.789    20535337.324          18.500
        19.250
  -1283525.017 4   -993965.357 5  23899681.773    23899688.180           6.500
         7.500
  -4196555.074 6  -3270042.061 6  22097553.914    22097559.387          14.250
        16.250
 97 10  3  3 29 30.0000000  0  7G 2G 3G31G18G19G10G27
  -4879201.322 5  -3801972.080 5  23143455.570    23143461.844           9.750
        11.000
   3220866.651 5   2509126.192 5  23752072.406    23752077.953           7.750
         7.250
  -1310873.320 6  -1008585.637 6  21638517.820    21638522.816          15.250
        15.500
   3192491.324 6   2487655.514 6  20711918.641    20711924.066          19.750
        21.250
   -590099.797 6   -459817.395 6  20535361.859    20535367.207          18.750
        19.500
  -1288849.917 4   -998114.620 5  23898668.563    23898674.715           6.750
         7.500
  -4224974.175 6  -3292186.813 6  22092145.898    22092151.504          14.250
        16.500
 97 10  3  3 29 45.0000000  0  7G 2G 3G31G18G19G10G27
  -4910941.683 5  -3826704.819 5  23137415.438    23137421.938           9.750
        11.250
   3253638.529 5   2534662.719 5  23758308.891    23758314.148           7.750
         7.000
  -1309789.752 6  -1007741.294 6  21638724.125    21638729.133          15.250
        15.750
   3225119.214 6   2513079.831 6  20718127.555    20718132.988          19.500
        21.250
   -589889.704 6   -459653.691 6  20535401.836    20535407.363          19.000
        19.500
  -1294038.187 4  -1002157.434 5  23897680.867    23897687.293           6.500
         7.500
  -4253372.465 6  -3314315.343 6  22086742.219    22086747.563          14.500
        16.500
 97 10  3  3 30  0.0000000  0  7G 2G 3G31G18G19G10G27
  -4942618.253 5  -3851387.846 5  23131387.539    23131393.848           9.750
        11.250
   3286531.571 5   2560293.686 5  23764567.875    23764573.648           7.500
         7.750
  -1308541.893 6  -1006768.931 6  21638961.531    21638966.637          15.000
        15.750
   3257865.539 6   2538596.439 6  20724359.039    20724364.410          19.500
        21.500
   -589625.888 6   -459448.112 6  20535452.063    20535457.461          18.750
        19.500
  -1299086.361 4  -1006091.091 5  23896719.898    23896726.797           6.250
         7.500
  -4281748.957 6  -3336426.887 6  22081342.383    22081347.641          14.750
        16.250
 97 10  3  3 30 15.0000000  0  7G 2G 3G31G18G19G10G27
  -4974231.921 5  -3876021.870 5  23125371.750    23125378.059           9.750
        11.250
   3319547.062 5   2586020.033 5  23770850.719    23770856.711           7.750
         7.250
  -1307127.036 6  -1005666.443 6  21639230.742    21639235.746          15.250
        15.750
   3290731.556 6   2564206.318 6  20730613.242    20730618.645          19.750
        21.250
   -589305.171 6   -459198.205 6  20535513.094    20535518.563          18.750
        19.500
  -1303991.744 4  -1009913.445 5  23895787.414    23895793.453           6.500
         7.500
  -4310100.184 6  -3358518.750 6  22075946.844    22075952.555          14.500
        16.500
 97 10  3  3 30 30.0000000  0  7G 2G 3G31G18G19G10G27
  -5005783.685 5  -3900607.650 5  23119367.938    23119373.848          10.000
        11.250
   3352685.830 5   2611842.446 5  23777156.820    23777162.270           7.500
         7.250
  -1305544.146 6  -1004433.018 6  21639532.047    21639536.965          15.500
        15.750
   3323721.673 6   2589912.902 6  20736891.000    20736896.461          19.500
        21.500
   -588925.101 6   -458902.040 6  20535585.453    20535590.813          18.750
        19.500
  -1308754.260 4  -1013624.499 5  23894880.961    23894887.195           6.500
         7.500
  -4338425.505 6  -3380590.418 6  22070556.891    22070562.535          14.500
        16.750
 97 10  3  3 30 45.0000000  0  7G 2G 3G31G18G19G10G27
  -5037271.351 5  -3925143.482 5  23113375.828    23113382.121          10.000
        11.250
   3385947.175 5   2637760.373 5  23783486.203    23783491.715           7.750
         7.250
  -1303795.794 6  -1003070.669 6  21639864.719    21639869.773          15.250
        15.500
   3356839.211 6   2615718.773 6  20743192.836    20743198.363          19.750
        21.250
   -588485.268 6   -458559.313 6  20535669.102    20535674.598          18.750
        19.500
  -1313371.769 4  -1017222.544 5  23894002.117    23894008.207           6.500
         7.500
  -4366723.136 6  -3402640.515 6  22065171.945    22065177.645          14.500
        16.500
 97 10  3  3 31  0.0000000  0  7G 2G 3G31G18G19G10G27
  -5068687.887 5  -3949623.893 5  23107397.516    23107403.711          10.000
        11.250
   3419330.634 5   2663773.466 5  23789838.836    23789844.711           7.500
         7.250
  -1301880.190 6  -1001577.980 6  21640229.492    21640234.516          15.000
        15.750
   3390085.992 6   2641625.344 6  20749519.750    20749525.129          19.750
        21.500
   -587983.519 6   -458168.337 6  20535764.602    20535770.098          19.000
        19.500
  -1317839.996 4  -1020704.275 5  23893151.977    23893157.898           6.750
         7.500
  -4394988.348 6  -3424665.351 6  22059793.523    22059798.758          14.500
        16.500
 97 10  3  3 31 15.0000000  0  7G 2G 3G31G18G19G10G27
  -5100033.297 5  -3974048.878 5  23101432.664    23101439.020          10.000
        11.250
   3452831.517 5   2689878.042 5  23796214.305    23796219.445           7.500
         7.000
  -1299797.758 6   -999955.307 6  21640625.320    21640630.375          15.250
        15.750
   3423458.953 6   2667630.245 6  20755870.414    20755875.848          19.750
        21.500
   -587422.628 6   -457731.279 6  20535871.289    20535876.750          18.500
        19.500
  -1322161.624 4  -1024071.768 5  23892330.164    23892335.535           7.000
         7.500
  -4423220.069 6  -3446664.083 6  22054421.070    22054426.719          14.500
        16.750
 97 10  3  3 31 30.0000000  0  7G 2G 3G31G18G19G10G27
  -5131309.063 5  -3998419.583 5  23095481.133    23095487.273          10.250
        11.250
   3486449.973 4   2716074.241 5  23802611.211    23802616.934           7.250
         7.250
  -1297549.416 6   -998203.348 6  21641053.258    21641058.285          15.250
        16.000
   3456957.440 6   2693732.956 6  20762244.844    20762250.344          19.750
        21.250
   -586801.491 6   -457247.276 6  20535989.453    20535995.043          18.500
        19.500
  -1326339.636 4  -1027327.351 5  23891534.406    23891540.934           6.500
         7.500
  -4451415.906 6  -3468634.858 6  22049055.586    22049060.996          14.750
        16.500
 97 10  3  3 31 45.0000000  0  7G 2G 3G31G18G19G10G27
  -5162517.114 5  -4022737.536 5  23089542.336    23089548.590          10.000
        11.500
   3520185.915 4   2742361.975 5  23809030.813    23809036.504           7.250
         7.250
  -1295140.398 6   -996326.187 6  21641511.680    21641516.840          15.000
        15.750
   3490579.541 6   2719931.993 6  20768643.086    20768648.508          19.750
        21.250
   -586119.727 6   -456716.028 6  20536119.156    20536124.695          18.750
        19.500
  -1330372.937 4  -1030470.199 5  23890766.742    23890773.336           6.500
         7.750
  -4479579.295 6  -3490580.351 6  22043696.398    22043701.531          14.750
        16.250
 97 10  3  3 32  0.0000000  0  7G 2G 3G31G18G19G10G27
  -5193651.663 5  -4046998.215 5  23083617.750    23083623.820          10.000
        11.500
   3554044.033 4   2768744.936 5  23815473.883    23815479.340           7.250
         7.000
  -1292567.993 6   -994321.714 6  21642001.195    21642006.363          15.000
        15.750
   3524329.496 6   2746230.659 6  20775065.406    20775070.789          19.750
        21.250
   -585367.776 6   -456130.093 6  20536262.359    20536267.883          18.500
        19.500
  -1334257.755 4  -1033497.311 5  23890027.359    23890033.645           6.500
         7.500
  -4507707.742 6  -3512498.616 6  22038343.617    22038348.902          14.750
        16.500
